SQ9IAB-13 Weather Reports


time (UTC)temp
C
wind
direction
speed
KPH
gust
KPH
rain 1hr
cm
rain 24hr
cm
rain mn
cm
humidity
%
barometer
mb
20260508023826 12 196 0.0 0.0 0.05 0.76 0.13 96 1003.0
20260508023725 12 181 0.0 0.0 0.05 0.76 0.13 96 1002.9
20260508023625 12 181 0.0 0.0 0.05 0.76 0.13 96 1002.8
20260508023526 12 0 0.0 0.0 0.05 0.76 0.13 96 1002.9
20260508023426 12 0 0.0 0.0 0.05 0.76 0.13 96 1002.7
20260508023327 12 0 0.0 0.0 0.05 0.76 0.13 96 1002.7
20260508023225 12 0 0.0 0.0 0.05 0.76 0.13 96 1002.7
20260508023126 12 0 0.0 0.0 0.05 0.76 0.13 96 1002.8
20260508023025 12 0 0.0 0.0 0.05 0.76 0.13 96 1002.8
20260508022925 12 181 0.0 0.0 0.05 0.76 0.13 96 1002.9
20260508022825 12 181 0.0 0.0 0.05 0.76 0.13 96 1002.7
20260508022726 12 181 0.0 0.0 0.05 0.76 0.13 96 1002.8
20260508022625 12 181 0.0 0.0 0.05 0.76 0.13 96 1002.7
20260508022525 12 181 0.0 0.0 0.05 0.76 0.13 96 1002.6
20260508022426 12 181 0.0 0.0 0.05 0.76 0.13 96 1002.7
20260508022326 12 181 0.0 0.0 0.05 0.76 0.13 96 1002.7
20260508022225 12 181 0.0 0.0 0.05 0.76 0.13 96 1002.7
20260508022126 12 181 0.0 0.0 0.05 0.76 0.13 96 1002.7
20260508022026 12 181 0.0 0.0 0.05 0.76 0.13 96 1002.8
20260508021926 11 181 0.0 0.0 0.05 0.76 0.13 96 1002.7
20260508021826 11 181 0.0 0.0 0.05 0.76 0.13 96 1002.8
20260508021725 11 181 0.0 0.0 0.05 0.76 0.13 96 1002.5
20260508021625 11 181 0.0 0.0 0.03 0.74 0.10 96 1002.6
20260508021526 11 181 0.0 0.0 0.03 0.74 0.10 96 1002.7
20260508021426 11 181 0.0 0.0 0.03 0.74 0.10 96 1002.6
20260508021325 11 181 0.0 0.0 0.03 0.74 0.10 96 1002.6
20260508021225 11 181 0.0 0.0 0.03 0.74 0.10 96 1002.6
20260508021125 11 0 0.0 0.0 0.03 0.74 0.10 96 1002.7
20260508021026 11 0 0.0 0.0 0.03 0.74 0.10 96 1002.6
20260508020926 11 0 0.0 0.0 0.03 0.74 0.10 96 1002.7
20260508020824 11 181 0.0 1.6 0.03 0.74 0.10 96 1002.6
20260508020725 11 190 0.0 3.2 0.03 0.74 0.10 96 1002.7
20260508020625 12 211 0.0 3.2 0.00 0.71 0.08 96 1002.6
20260508020526 12 208 0.0 3.2 0.00 0.71 0.08 96 1002.6
20260508020426 12 206 0.0 3.2 0.00 0.71 0.08 96 1002.7
20260508020325 12 182 0.0 4.8 0.00 0.71 0.08 96 1002.7
20260508020225 12 181 0.0 4.8 0.00 0.71 0.08 96 1002.6
20260508020127 12 181 0.0 4.8 0.00 0.71 0.08 96 1002.5
20260508020025 12 181 0.0 4.8 0.00 0.71 0.08 96 1002.4
20260508015926 12 181 0.0 4.8 0.00 0.71 0.08 96 1002.6
20260508015825 12 181 0.0 4.8 0.03 0.71 0.08 96 1002.7
20260508015725 12 179 0.0 4.8 0.03 0.71 0.08 96 1002.5
20260508015626 12 170 0.0 4.8 0.03 0.71 0.08 96 1002.6
20260508015525 12 170 0.0 4.8 0.03 0.71 0.08 96 1002.7
20260508015425 12 168 3.2 4.8 0.03 0.71 0.08 96 1002.7
20260508015326 12 167 1.6 4.8 0.03 0.71 0.08 96 1002.5
20260508015225 12 167 0.0 4.8 0.03 0.71 0.08 96 1002.7
20260508015125 12 167 0.0 4.8 0.03 0.71 0.08 96 1002.7
20260508015025 12 168 0.0 4.8 0.03 0.71 0.08 96 1002.6
20260508014926 12 168 0.0 4.8 0.03 0.71 0.08 96 1002.5
20260508014825 12 167 1.6 4.8 0.03 0.71 0.08 96 1002.7
20260508014725 12 167 0.0 4.8 0.03 0.71 0.08 96 1002.7
20260508014626 12 166 0.0 4.8 0.03 0.71 0.08 96 1002.6
20260508014526 12 165 1.6 4.8 0.05 0.71 0.08 96 1002.5
20260508014426 12 162 3.2 4.8 0.05 0.71 0.08 96 1002.6
20260508014325 12 164 0.0 6.4 0.05 0.71 0.08 96 1002.7
20260508014225 12 168 0.0 6.4 0.05 0.71 0.08 96 1002.6
20260508014125 12 173 0.0 6.4 0.05 0.71 0.08 96 1002.6
20260508014026 12 174 0.0 6.4 0.05 0.71 0.08 96 1002.5
20260508013925 12 173 0.0 6.4 0.05 0.71 0.08 96 1002.8
20260508013825 12 164 0.0 8.0 0.05 0.71 0.08 96 1002.6
20260508013725 12 159 0.0 8.0 0.05 0.71 0.08 96 1002.6
20260508013625 12 159 0.0 8.0 0.05 0.71 0.08 96 1002.6
20260508013526 12 156 1.6 8.0 0.05 0.71 0.08 96 1002.7
20260508013425 12 158 1.6 8.0 0.05 0.71 0.08 96 1002.4
20260508013325 12 161 4.8 8.0 0.05 0.71 0.08 96 1002.6
20260508013226 12 153 0.0 8.0 0.05 0.71 0.08 96 1002.6
20260508013125 12 145 0.0 8.0 0.05 0.71 0.08 96 1002.6
20260508013026 12 137 0.0 8.0 0.05 0.71 0.08 96 1002.6
20260508012926 12 127 0.0 8.0 0.05 0.71 0.08 96 1002.6
20260508012827 12 121 4.8 8.0 0.05 0.71 0.08 96 1002.7
20260508012725 12 150 3.2 3.2 0.05 0.71 0.08 96 1002.6
20260508012625 12 146 0.0 1.6 0.05 0.71 0.08 96 1002.6
20260508012525 12 181 0.0 0.0 0.05 0.71 0.08 96 1002.5
20260508012425 12 154 0.0 0.0 0.05 0.71 0.08 96 1002.5
20260508012326 12 164 0.0 0.0 0.05 0.71 0.08 96 1002.6
20260508012226 12 164 0.0 0.0 0.05 0.71 0.08 96 1002.7
20260508012126 12 164 0.0 0.0 0.05 0.71 0.08 96 1002.5
20260508012026 12 164 0.0 0.0 0.05 0.71 0.08 96 1002.7
20260508011926 12 164 0.0 0.0 0.05 0.71 0.08 96 1002.7
20260508011825 12 164 0.0 0.0 0.08 0.71 0.08 96 1002.6
20260508011726 12 162 0.0 0.0 0.08 0.71 0.08 96 1002.5
20260508011625 12 157 0.0 0.0 0.08 0.71 0.08 96 1002.5
20260508011526 12 157 0.0 0.0 0.08 0.71 0.08 96 1002.6
20260508011425 12 181 0.0 0.0 0.08 0.71 0.08 96 1002.5
20260508011326 12 0 0.0 0.0 0.08 0.71 0.08 96 1002.5
20260508011226 12 0 0.0 0.0 0.08 0.71 0.08 96 1002.7
20260508011126 12 0 0.0 0.0 0.08 0.71 0.08 96 1002.6
20260508011027 12 0 0.0 0.0 0.08 0.71 0.08 96 1002.8
20260508010925 12 0 0.0 0.0 0.08 0.71 0.08 96 1002.5
20260508010825 12 0 0.0 0.0 0.08 0.71 0.08 96 1002.7
20260508010726 12 0 0.0 0.0 0.08 0.71 0.08 96 1002.6
20260508010627 12 0 0.0 0.0 0.08 0.71 0.08 96 1002.6
20260508010525 12 0 0.0 0.0 0.08 0.71 0.08 96 1002.7
20260508010425 12 99 0.0 1.6 0.08 0.71 0.08 96 1002.8
20260508010325 12 126 0.0 1.6 0.08 0.71 0.08 96 1002.7
20260508010226 12 129 0.0 1.6 0.08 0.71 0.08 96 1002.3
20260508010126 12 130 0.0 1.6 0.08 0.71 0.08 96 1002.7
20260508010025 12 130 0.0 1.6 0.08 0.71 0.08 96 1002.6
20260508005926 12 130 0.0 1.6 0.05 0.69 0.05 96 1002.7
20260508005826 12 130 0.0 1.6 0.05 0.69 0.05 96 1002.6
20260508005726 12 130 0.0 1.6 0.05 0.69 0.05 96 1002.6
20260508005626 12 130 0.0 1.6 0.05 0.69 0.05 96 1002.6
20260508005526 12 131 0.0 3.2 0.05 0.69 0.05 96 1002.8
20260508005426 12 139 0.0 3.2 0.05 0.69 0.05 96 1002.7
20260508005326 12 130 0.0 3.2 0.05 0.69 0.05 96 1002.7
20260508005227 12 124 0.0 3.2 0.05 0.69 0.05 96 1002.6
20260508005125 12 126 0.0 4.8 0.05 0.69 0.05 96 1002.8
20260508005025 12 127 0.0 4.8 0.05 0.69 0.05 96 1002.6
20260508004925 12 128 0.0 4.8 0.05 0.69 0.05 96 1002.8
20260508004825 12 128 0.0 4.8 0.05 0.69 0.05 96 1002.8
20260508004726 12 129 0.0 4.8 0.05 0.69 0.05 96 1002.6
20260508004625 12 130 0.0 4.8 0.05 0.69 0.05 96 1002.6
20260508004525 12 133 0.0 4.8 0.03 0.64 0.03 96 1002.7
20260508004425 12 133 0.0 4.8 0.03 0.64 0.03 96 1002.8
20260508004325 12 135 0.0 4.8 0.03 0.64 0.03 96 1002.8
20260508004225 12 137 0.0 4.8 0.03 0.64 0.03 96 1002.7
20260508004125 12 137 1.6 4.8 0.03 0.64 0.03 96 1002.9
20260508004026 12 138 0.0 1.6 0.03 0.64 0.03 96 1002.9
20260508003925 12 138 0.0 1.6 0.03 0.64 0.03 96 1002.8
20260508003826 12 139 0.0 1.6 0.03 0.64 0.03 96 1002.9
20260508003725 12 139 0.0 1.6 0.03 0.64 0.03 96 1002.8
20260508003626 12 143 0.0 1.6 0.03 0.64 0.03 96 1002.7
20260508003526 12 142 0.0 1.6 0.03 0.64 0.03 96 1002.8
20260508003426 12 143 0.0 1.6 0.03 0.64 0.03 96 1002.9
20260508003325 12 142 0.0 1.6 0.03 0.64 0.03 96 1002.9
20260508003225 12 144 0.0 1.6 0.03 0.64 0.03 96 1002.9
20260508003126 12 150 0.0 1.6 0.03 0.64 0.03 96 1002.8
20260508003026 12 151 0.0 0.0 0.03 0.64 0.03 96 1003.0
20260508002926 12 151 0.0 0.0 0.03 0.64 0.03 96 1002.9
20260508002827 12 151 0.0 0.0 0.03 0.64 0.03 96 1003.0
20260508002726 12 151 0.0 0.0 0.03 0.64 0.03 96 1002.9
20260508002626 12 144 0.0 0.0 0.03 0.64 0.03 96 1002.8
20260508002526 12 144 0.0 0.0 0.03 0.64 0.03 96 1002.9
20260508002425 12 135 0.0 0.0 0.03 0.64 0.03 96 1003.0
20260508002326 12 147 0.0 1.6 0.03 0.64 0.03 96 1003.1
20260508002226 12 186 0.0 1.6 0.03 0.64 0.03 96 1003.0
20260508002125 12 186 0.0 1.6 0.03 0.64 0.03 96 1002.9
20260508002026 12 186 0.0 1.6 0.03 0.64 0.03 96 1002.9
20260508001925 12 179 0.0 3.2 0.00 0.61 0.00 96 1003.0
20260508001825 12 169 0.0 3.2 0.00 0.61 0.00 96 1002.9
20260508001726 12 166 0.0 3.2 0.00 0.61 0.00 96 1003.0
20260508001625 12 167 0.0 3.2 0.00 0.61 0.00 96 1002.9
20260508001525 12 167 0.0 3.2 0.00 0.61 0.00 96 1003.0
20260508001426 12 167 0.0 3.2 0.00 0.61 0.00 96 1003.0
20260508001326 12 166 0.0 3.2 0.00 0.61 0.00 96 1002.9
20260508001225 12 161 0.0 3.2 0.00 0.61 0.00 96 1003.0
20260508001125 12 157 0.0 3.2 0.00 0.61 0.00 96 1002.8
20260508001026 12 156 0.0 3.2 0.00 0.61 0.00 96 1003.0
20260508000925 12 145 1.6 3.2 0.00 0.61 0.00 96 1002.9
20260508000826 12 157 0.0 0.0 0.00 0.61 0.00 96 1003.0
20260508000725 12 172 0.0 0.0 0.00 0.61 0.00 96 1003.0
20260508000625 12 0 0.0 0.0 0.00 0.61 0.00 96 1002.9
20260508000525 12 0 0.0 0.0 0.00 0.61 0.00 96 1003.2
20260508000427 12 0 0.0 0.0 0.00 0.61 0.00 96 1003.1
20260508000327 12 0 0.0 0.0 0.00 0.61 0.00 96 1003.1
20260508000227 12 0 0.0 0.0 0.00 0.61 0.00 96 1003.2
20260508000126 12 0 0.0 0.0 0.00 0.61 0.00 96 1003.1
20260508000025 12 0 0.0 0.0 0.00 0.61 0.00 96 1003.2
20260507235927 12 0 0.0 0.0 0.00 0.61 0.00 96 1003.1
20260507235826 12 0 0.0 0.0 0.00 0.61 0.00 96 1003.2
20260507235726 12 0 0.0 0.0 0.00 0.61 0.00 96 1003.2
20260507235626 12 0 0.0 0.0 0.00 0.61 0.00 96 1003.1
20260507235525 12 0 0.0 0.0 0.00 0.61 0.00 96 1003.2
20260507235426 12 0 0.0 0.0 0.00 0.61 0.00 96 1003.1
20260507235325 12 0 0.0 0.0 0.00 0.61 0.00 96 1003.2
20260507235225 12 0 0.0 0.0 0.00 0.61 0.00 96 1003.0
20260507235126 12 0 0.0 0.0 0.00 0.61 0.00 96 1002.9
20260507235026 12 0 0.0 0.0 0.00 0.61 0.00 96 1002.9
20260507234925 12 0 0.0 0.0 0.00 0.61 0.00 96 1003.1
20260507234826 12 0 0.0 0.0 0.00 0.61 0.00 96 1003.0
20260507234725 12 0 0.0 0.0 0.00 0.61 0.00 96 1002.9
20260507234625 12 0 0.0 0.0 0.00 0.61 0.00 96 1002.9
20260507234525 12 0 0.0 0.0 0.00 0.61 0.00 96 1002.7
20260507234425 12 0 0.0 0.0 0.00 0.61 0.00 96 1002.8
20260507234325 12 0 0.0 0.0 0.00 0.61 0.00 96 1002.6
20260507234225 12 135 0.0 0.0 0.00 0.61 0.00 96 1002.8
20260507234126 12 135 0.0 0.0 0.00 0.61 0.00 96 1002.6
20260507234026 12 135 0.0 0.0 0.00 0.61 0.00 96 1002.6
20260507233925 12 135 0.0 0.0 0.00 0.61 0.00 96 1002.8
20260507233826 12 135 0.0 0.0 0.00 0.61 0.00 96 1002.7
20260507233725 12 135 0.0 0.0 0.00 0.61 0.00 96 1002.8
20260507233625 12 135 0.0 0.0 0.00 0.61 0.00 96 1002.7
20260507233525 12 135 0.0 0.0 0.00 0.61 0.00 96 1002.8
20260507233425 12 135 0.0 0.0 0.00 0.61 0.00 96 1002.8
20260507233326 12 135 0.0 0.0 0.00 0.61 0.00 96 1002.7
20260507233225 12 135 0.0 0.0 0.00 0.61 0.00 96 1002.8
20260507233125 12 0 0.0 0.0 0.00 0.61 0.00 96 1003.0
20260507233025 12 0 0.0 0.0 0.00 0.61 0.00 96 1002.8
20260507232925 12 0 0.0 0.0 0.00 0.61 0.00 96 1002.8
20260507232825 12 0 0.0 0.0 0.00 0.61 0.00 96 1002.6
20260507232726 12 0 0.0 0.0 0.00 0.61 0.00 95 1002.8
20260507232626 12 0 0.0 0.0 0.00 0.61 0.00 95 1002.7
20260507232527 12 0 0.0 0.0 0.00 0.61 0.00 95 1002.8
20260507232425 12 0 0.0 0.0 0.00 0.61 0.00 95 1002.8
20260507232326 12 0 0.0 0.0 0.00 0.61 0.00 95 1002.8
20260507232226 12 0 0.0 0.0 0.00 0.61 0.00 95 1002.8
20260507232127 12 0 0.0 0.0 0.00 0.61 0.00 95 1002.8
20260507232025 12 0 0.0 0.0 0.00 0.61 0.00 95 1002.9
20260507231926 12 0 0.0 0.0 0.00 0.61 0.00 95 1002.9
20260507231826 12 0 0.0 0.0 0.00 0.61 0.00 95 1002.8
20260507231726 12 0 0.0 0.0 0.00 0.61 0.00 95 1002.8
20260507231627 12 0 0.0 0.0 0.00 0.61 0.00 95 1002.8
20260507231527 12 0 0.0 0.0 0.00 0.61 0.00 95 1002.8
20260507231425 12 135 0.0 0.0 0.00 0.61 0.00 95 1002.8
20260507231325 12 135 0.0 0.0 0.00 0.61 0.00 95 1002.9
20260507231226 12 157 0.0 0.0 0.00 0.61 0.00 95 1003.0
20260507231126 12 149 0.0 0.0 0.00 0.61 0.00 95 1002.9
20260507231026 12 149 0.0 0.0 0.00 0.61 0.00 95 1003.0
20260507230926 12 149 0.0 0.0 0.00 0.61 0.00 95 1003.0
20260507230826 12 149 0.0 0.0 0.00 0.61 0.00 95 1003.0
20260507230725 12 157 0.0 0.0 0.00 0.61 0.00 95 1002.9
20260507230626 12 157 0.0 0.0 0.00 0.61 0.00 95 1002.8
20260507230526 12 157 0.0 0.0 0.00 0.61 0.00 95 1002.7
20260507230425 12 161 0.0 0.0 0.00 0.61 0.00 95 1002.8
20260507230325 12 165 0.0 0.0 0.00 0.61 0.00 95 1002.9
20260507230225 12 157 0.0 0.0 0.00 0.61 0.00 95 1002.9
20260507230125 12 181 0.0 1.6 0.00 0.61 0.00 95 1002.7
20260507230026 12 159 0.0 1.6 0.00 0.61 0.00 95 1002.9
20260507225925 12 159 0.0 1.6 0.00 0.61 0.00 95 1002.8
20260507225825 12 162 0.0 1.6 0.00 0.61 0.00 95 1002.8
20260507225726 12 159 0.0 1.6 0.00 0.61 0.00 95 1002.7
20260507225626 12 159 0.0 1.6 0.00 0.61 0.00 95 1002.7
20260507225525 12 159 0.0 1.6 0.00 0.61 0.00 95 1002.7
20260507225425 12 159 0.0 1.6 0.00 0.61 0.00 95 1002.9
20260507225326 12 159 0.0 1.6 0.00 0.61 0.00 95 1002.6
20260507225226 12 159 0.0 1.6 0.00 0.61 0.00 95 1002.8
20260507225125 12 153 0.0 1.6 0.00 0.61 0.00 92 1002.7
20260507225026 12 172 0.0 0.0 0.00 0.61 0.00 92 1003.0
20260507224926 12 174 0.0 0.0 0.00 0.61 0.00 92 1003.0
20260507224826 12 173 0.0 0.0 0.00 0.61 0.00 92 1002.9
20260507224727 12 172 0.0 0.0 0.00 0.61 0.00 92 1003.0
20260507224625 12 181 0.0 0.0 0.00 0.61 0.00 92 1003.0
20260507224525 12 181 0.0 0.0 0.00 0.61 0.00 92 1003.0
20260507224427 12 181 0.0 0.0 0.00 0.61 0.00 92 1002.8
20260507224325 12 181 0.0 0.0 0.00 0.61 0.00 92 1003.0
20260507224225 12 181 0.0 0.0 0.00 0.61 0.00 92 1002.8
20260507224125 12 181 0.0 0.0 0.00 0.61 0.00 91 1002.9
20260507224025 12 181 0.0 0.0 0.00 0.61 0.00 91 1003.0
20260507223925 12 181 0.0 0.0 0.03 0.61 0.00 91 1003.0
20260507223826 12 0 0.0 0.0 0.03 0.61 0.00 91 1002.9
20260507223726 12 0 0.0 0.0 0.03 0.61 0.00 91 1002.9
20260507223626 12 0 0.0 0.0 0.03 0.61 0.00 91 1002.8
20260507223525 12 0 0.0 0.0 0.03 0.61 0.00 91 1002.8
20260507223425 12 0 0.0 0.0 0.03 0.61 0.00 91 1002.7
20260507223325 12 0 0.0 0.0 0.03 0.61 0.00 91 1002.8
20260507223226 12 0 0.0 0.0 0.03 0.61 0.00 91 1002.8
20260507223126 12 0 0.0 0.0 0.03 0.61 0.00 91 1002.8
20260507223025 12 0 0.0 0.0 0.03 0.61 0.00 91 1002.7
20260507222926 12 0 0.0 0.0 0.03 0.61 0.00 91 1002.8
20260507222826 12 0 0.0 0.0 0.03 0.61 0.00 91 1002.8
20260507222726 12 0 0.0 0.0 0.03 0.61 0.00 91 1002.7
20260507222625 12 0 0.0 0.0 0.05 0.61 0.00 91 1002.9
20260507222525 12 0 0.0 0.0 0.05 0.61 0.00 91 1003.0
20260507222425 12 0 0.0 0.0 0.08 0.61 0.00 91 1003.0
20260507222326 12 0 0.0 0.0 0.08 0.61 0.00 91 1002.9
20260507222226 12 0 0.0 0.0 0.08 0.61 0.00 91 1002.8
20260507222126 12 0 0.0 0.0 0.10 0.61 0.00 91 1003.0
20260507222025 12 0 0.0 0.0 0.13 0.61 0.00 91 1002.9
20260507221925 12 0 0.0 0.0 0.13 0.61 0.00 91 1002.9
20260507221825 12 0 0.0 0.0 0.13 0.61 0.00 91 1002.9
20260507221726 12 0 0.0 0.0 0.18 0.61 0.00 91 1002.8
20260507221626 12 0 0.0 0.0 0.20 0.61 0.00 91 1003.0
20260507221526 12 0 0.0 0.0 0.20 0.61 0.00 90 1003.0
20260507221425 12 0 0.0 0.0 0.20 0.61 0.00 90 1003.0
20260507221325 12 0 0.0 0.0 0.20 0.61 0.00 90 1003.0
20260507221226 12 0 0.0 0.0 0.20 0.61 0.00 90 1002.8
20260507221126 12 0 0.0 0.0 0.20 0.61 0.00 90 1003.1
20260507221025 12 0 0.0 0.0 0.20 0.61 0.00 90 1002.9
20260507220926 12 0 0.0 0.0 0.23 0.61 0.00 90 1002.9
20260507220827 12 0 0.0 0.0 0.23 0.61 0.00 90 1003.0
20260507220725 12 0 0.0 0.0 0.23 0.61 0.00 90 1003.0
20260507220625 12 0 0.0 0.0 0.25 0.61 0.00 90 1002.9
20260507220526 12 0 0.0 0.0 0.25 0.61 0.00 90 1002.9
20260507220426 12 0 0.0 0.0 0.25 0.61 0.00 90 1003.1
20260507220325 12 0 0.0 0.0 0.25 0.61 0.00 90 1003.1
20260507220225 12 0 0.0 0.0 0.25 0.61 0.00 90 1002.9
20260507220126 12 0 0.0 0.0 0.25 0.61 0.00 90 1003.1
20260507220025 12 0 0.0 0.0 0.25 0.61 0.00 90 1003.0
20260507215926 12 0 0.0 0.0 0.25 0.61 0.61 90 1003.0
20260507215827 12 0 0.0 0.0 0.25 0.61 0.61 90 1003.0
20260507215726 12 0 0.0 0.0 0.25 0.61 0.61 90 1003.0
20260507215625 12 0 0.0 0.0 0.25 0.61 0.61 90 1003.0
20260507215525 12 0 0.0 0.0 0.25 0.61 0.61 90 1003.0
20260507215427 12 0 0.0 0.0 0.25 0.61 0.61 90 1003.0
20260507215325 12 0 0.0 0.0 0.25 0.61 0.61 90 1003.0
20260507215225 12 0 0.0 0.0 0.25 0.61 0.61 90 1003.0
20260507215126 12 0 0.0 0.0 0.25 0.61 0.61 90 1002.9
20260507215026 12 0 0.0 0.0 0.25 0.61 0.61 90 1003.1
20260507214926 12 0 0.0 0.0 0.25 0.61 0.61 90 1003.0
20260507214826 12 0 0.0 0.0 0.25 0.61 0.61 90 1003.0
20260507214725 12 0 0.0 0.0 0.25 0.61 0.61 90 1003.0
20260507214626 12 0 0.0 0.0 0.25 0.61 0.61 90 1003.0
20260507214526 12 0 0.0 0.0 0.25 0.61 0.61 90 1002.9
20260507214427 12 0 0.0 0.0 0.25 0.61 0.61 90 1002.9
20260507214325 12 0 0.0 0.0 0.25 0.61 0.61 90 1002.9
20260507214226 12 0 0.0 0.0 0.25 0.61 0.61 89 1003.0
20260507214126 12 0 0.0 0.0 0.25 0.61 0.61 89 1003.0
20260507214026 12 0 0.0 0.0 0.23 0.58 0.58 89 1003.1
20260507213925 12 0 0.0 0.0 0.23 0.58 0.58 89 1003.1
20260507213825 12 0 0.0 0.0 0.23 0.58 0.58 89 1002.9
20260507213725 12 0 0.0 0.0 0.23 0.58 0.58 89 1003.0
20260507213626 12 0 0.0 0.0 0.23 0.58 0.58 89 1003.1
20260507213526 12 0 0.0 0.0 0.23 0.58 0.58 89 1002.8
20260507213426 12 0 0.0 0.0 0.23 0.58 0.58 89 1003.0
20260507213326 12 0 0.0 0.0 0.23 0.58 0.58 89 1002.8
20260507213226 12 0 0.0 0.0 0.23 0.58 0.58 89 1002.9
20260507213126 12 0 0.0 0.0 0.23 0.58 0.58 89 1002.9
20260507213025 12 0 0.0 0.0 0.23 0.58 0.58 89 1002.9
20260507212927 12 0 0.0 0.0 0.25 0.58 0.58 89 1002.9
20260507212825 12 0 0.0 0.0 0.25 0.58 0.58 89 1002.9
20260507212726 12 0 0.0 0.0 0.25 0.58 0.58 89 1003.0
20260507212625 12 0 0.0 0.0 0.23 0.56 0.56 89 1003.0
20260507212525 12 0 0.0 0.0 0.25 0.56 0.56 89 1003.0
20260507212427 12 0 0.0 0.0 0.23 0.53 0.53 89 1002.9
20260507212325 12 0 0.0 0.0 0.23 0.53 0.53 89 1003.0
20260507212226 12 0 0.0 0.0 0.23 0.51 0.51 89 1003.1
20260507212126 12 0 0.0 0.0 0.20 0.46 0.46 89 1003.0
20260507212026 13 0 0.0 0.0 0.20 0.46 0.46 89 1002.9
20260507211925 13 0 0.0 0.0 0.20 0.46 0.46 88 1003.0
20260507211827 13 0 0.0 0.0 0.18 0.43 0.43 88 1002.9
20260507211725 13 0 0.0 0.0 0.13 0.41 0.41 88 1002.9
20260507211625 13 0 0.0 0.0 0.13 0.41 0.41 88 1003.0
20260507211526 13 0 0.0 0.0 0.13 0.41 0.41 88 1003.0
20260507211426 13 0 0.0 0.0 0.13 0.41 0.41 88 1003.0
20260507211325 13 0 0.0 0.0 0.13 0.41 0.41 88 1003.1
20260507211226 13 0 0.0 0.0 0.13 0.41 0.41 88 1003.1
20260507211127 13 0 0.0 0.0 0.13 0.41 0.41 88 1003.0
20260507211025 13 0 0.0 0.0 0.10 0.38 0.38 88 1003.0
20260507210926 13 0 0.0 0.0 0.10 0.38 0.38 88 1003.0
20260507210826 13 0 0.0 0.0 0.10 0.38 0.38 88 1002.9
20260507210725 13 0 0.0 0.0 0.10 0.38 0.38 88 1002.9
20260507210625 13 0 0.0 0.0 0.08 0.36 0.36 88 1002.8
20260507210526 13 0 0.0 0.0 0.08 0.36 0.36 88 1002.9
20260507210426 13 158 0.0 0.0 0.08 0.36 0.36 88 1002.8
20260507210325 13 158 0.0 0.0 0.08 0.36 0.36 88 1002.8
20260507210225 13 158 0.0 0.0 0.08 0.36 0.36 88 1002.7
20260507210125 13 158 0.0 0.0 0.08 0.36 0.36 88 1002.8
20260507210025 13 158 0.0 0.0 0.08 0.36 0.36 88 1002.7
20260507205926 13 158 0.0 0.0 0.08 0.36 0.36 88 1002.9
20260507205826 13 158 0.0 0.0 0.08 0.36 0.36 88 1002.7
20260507205727 13 173 0.0 1.6 0.08 0.36 0.36 88 1002.7
20260507205625 13 173 0.0 1.6 0.08 0.36 0.36 87 1002.8
20260507205527 13 173 0.0 1.6 0.08 0.36 0.36 87 1002.8
20260507205425 13 181 0.0 1.6 0.08 0.36 0.36 87 1002.9
20260507205325 13 181 0.0 1.6 0.08 0.36 0.36 87 1003.0
20260507205225 13 181 0.0 1.6 0.08 0.36 0.36 87 1002.7
20260507205125 13 181 0.0 1.6 0.08 0.36 0.36 87 1002.7
20260507205025 13 181 0.0 1.6 0.08 0.36 0.36 87 1002.8
20260507204926 13 181 0.0 1.6 0.08 0.36 0.36 87 1002.8
20260507204825 13 181 0.0 1.6 0.08 0.36 0.36 87 1002.8
20260507204725 13 181 0.0 1.6 0.08 0.36 0.36 87 1002.7
20260507204625 13 0 0.0 0.0 0.08 0.36 0.36 87 1002.7
20260507204526 13 0 0.0 0.0 0.08 0.36 0.36 87 1002.7
20260507204426 13 0 0.0 0.0 0.08 0.36 0.36 87 1002.9
20260507204326 13 0 0.0 0.0 0.08 0.36 0.36 87 1002.8
20260507204226 13 0 0.0 0.0 0.08 0.36 0.36 87 1002.8
20260507204127 13 0 0.0 0.0 0.08 0.36 0.36 87 1002.7
20260507204025 13 0 0.0 0.0 0.08 0.36 0.36 87 1002.7
20260507203925 13 0 0.0 0.0 0.08 0.36 0.36 87 1002.6
20260507203825 13 0 0.0 0.0 0.08 0.36 0.36 87 1002.6
20260507203726 13 0 0.0 0.0 0.08 0.36 0.36 87 1002.6
20260507203625 13 181 0.0 0.0 0.08 0.36 0.36 87 1002.5
20260507203526 13 181 0.0 0.0 0.08 0.36 0.36 87 1002.6
20260507203426 13 181 0.0 0.0 0.08 0.36 0.36 87 1002.5
20260507203325 13 181 0.0 0.0 0.08 0.36 0.36 87 1002.5
20260507203226 13 196 0.0 1.6 0.08 0.36 0.36 87 1002.7
20260507203126 13 204 0.0 1.6 0.08 0.36 0.36 87 1002.5
20260507203026 13 197 0.0 1.6 0.05 0.30 0.30 87 1002.6
20260507202926 13 181 0.0 4.8 0.05 0.30 0.30 87 1002.6
20260507202826 13 181 0.0 4.8 0.05 0.30 0.30 87 1002.5
20260507202726 13 182 0.0 4.8 0.05 0.30 0.30 87 1002.7
20260507202625 13 173 0.0 4.8 0.05 0.30 0.30 86 1002.5
20260507202526 13 189 0.0 4.8 0.03 0.28 0.28 86 1002.7
20260507202425 13 200 0.0 4.8 0.03 0.28 0.28 86 1002.5
20260507202326 13 210 0.0 4.8 0.03 0.28 0.28 86 1002.7
20260507202225 13 230 0.0 4.8 0.00 0.25 0.25 86 1002.8
20260507202126 13 254 0.0 4.8 0.00 0.25 0.25 86 1002.7
20260507202026 13 275 0.0 4.8 0.00 0.25 0.25 86 1002.6
20260507201925 13 294 1.6 4.8 0.00 0.25 0.25 86 1002.8
20260507201825 13 301 0.0 4.8 0.00 0.25 0.25 86 1002.9
20260507201726 13 306 0.0 4.8 0.00 0.25 0.25 86 1002.8
20260507201625 13 310 1.6 4.8 0.00 0.25 0.25 86 1002.9
20260507201525 13 310 1.6 4.8 0.00 0.25 0.25 86 1002.9
20260507201426 13 326 0.0 4.8 0.00 0.25 0.25 86 1002.7
20260507201325 13 322 1.6 4.8 0.00 0.25 0.25 85 1002.6
20260507201225 13 292 3.2 4.8 0.00 0.25 0.25 85 1002.6
20260507201126 13 307 0.0 1.6 0.00 0.25 0.25 85 1002.6
20260507201026 13 0 0.0 0.0 0.00 0.25 0.25 85 1002.4
20260507200926 13 0 0.0 0.0 0.00 0.25 0.25 85 1002.4
20260507200827 13 225 0.0 0.0 0.03 0.25 0.25 85 1002.5
20260507200725 13 225 0.0 0.0 0.03 0.25 0.25 85 1002.4
20260507200625 13 225 0.0 0.0 0.03 0.25 0.25 85 1002.3
20260507200525 13 225 0.0 0.0 0.03 0.25 0.25 85 1002.3
20260507200425 13 225 0.0 0.0 0.03 0.25 0.25 85 1002.1
20260507200326 13 225 0.0 0.0 0.03 0.25 0.25 85 1002.1
20260507200225 13 225 0.0 0.0 0.03 0.25 0.25 85 1002.3
20260507200126 13 225 0.0 0.0 0.03 0.25 0.25 85 1002.1
20260507200026 13 225 0.0 0.0 0.03 0.25 0.25 85 1002.2
20260507195926 13 225 0.0 0.0 0.03 0.25 0.25 85 1002.2
20260507195826 13 225 0.0 0.0 0.03 0.25 0.25 85 1002.3
20260507195726 13 225 0.0 0.0 0.03 0.25 0.25 85 1002.1
20260507195626 13 225 0.0 0.0 0.03 0.25 0.25 85 1002.2
20260507195527 13 225 0.0 0.0 0.03 0.25 0.25 85 1002.2
20260507195426 13 225 0.0 0.0 0.03 0.25 0.25 85 1002.2
20260507195325 13 225 0.0 0.0 0.03 0.25 0.25 85 1001.9
20260507195226 13 225 0.0 0.0 0.03 0.25 0.25 84 1002.2
20260507195127 13 0 0.0 0.0 0.03 0.25 0.25 84 1002.1
20260507195025 13 0 0.0 0.0 0.03 0.25 0.25 84 1001.9
20260507194927 13 0 0.0 0.0 0.03 0.25 0.25 84 1002.0
20260507194825 13 0 0.0 0.0 0.03 0.25 0.25 84 1002.0
20260507194725 13 0 0.0 0.0 0.03 0.25 0.25 84 1001.9
20260507194626 13 0 0.0 0.0 0.03 0.25 0.25 84 1001.8
20260507194525 13 0 0.0 0.0 0.03 0.25 0.25 84 1001.6
20260507194425 14 0 0.0 0.0 0.03 0.25 0.25 84 1001.7
20260507194325 14 225 0.0 1.6 0.03 0.25 0.25 84 1001.6
20260507194226 14 225 0.0 1.6 0.03 0.25 0.25 84 1001.7
20260507194126 14 225 0.0 1.6 0.03 0.25 0.25 84 1001.6
20260507194026 14 225 0.0 1.6 0.03 0.25 0.25 84 1001.5
20260507193926 14 225 0.0 1.6 0.03 0.25 0.25 84 1001.6
20260507193826 14 238 0.0 1.6 0.03 0.25 0.25 84 1001.7
20260507193726 14 253 0.0 3.2 0.03 0.25 0.25 84 1001.6
20260507193626 14 255 0.0 3.2 0.03 0.25 0.25 84 1001.6
20260507193526 14 255 0.0 3.2 0.03 0.25 0.25 84 1001.7
20260507193426 14 255 0.0 3.2 0.03 0.25 0.25 84 1001.6
20260507193326 14 257 0.0 3.2 0.03 0.25 0.25 84 1001.7
20260507193225 14 265 0.0 3.2 0.03 0.25 0.25 84 1001.5
20260507193125 14 265 0.0 3.2 0.03 0.25 0.25 84 1001.6
20260507193026 14 260 0.0 3.2 0.03 0.25 0.25 84 1001.5
20260507192925 14 257 0.0 3.2 0.03 0.25 0.25 84 1001.5
20260507192825 14 243 0.0 3.2 0.03 0.25 0.25 84 1001.5
20260507192725 14 209 0.0 3.2 0.03 0.25 0.25 84 1001.6
20260507192625 14 199 0.0 1.6 0.03 0.25 0.25 84 1001.4
20260507192526 14 205 0.0 1.6 0.03 0.25 0.25 84 1001.3
20260507192426 14 202 0.0 3.2 0.03 0.25 0.25 84 1001.4
20260507192326 14 196 0.0 3.2 0.03 0.25 0.25 84 1001.4
20260507192225 15 187 0.0 3.2 0.03 0.25 0.25 84 1001.5
20260507192125 15 177 0.0 4.8 0.03 0.25 0.25 84 1001.3
20260507192025 15 176 0.0 4.8 0.03 0.25 0.25 84 1001.2
20260507191926 15 175 0.0 4.8 0.03 0.25 0.25 84 1001.3
20260507191826 15 176 0.0 4.8 0.03 0.25 0.25 84 1001.3
20260507191726 15 173 0.0 4.8 0.03 0.25 0.25 84 1001.3
20260507191626 15 171 0.0 4.8 0.03 0.25 0.25 84 1001.2
20260507191526 15 168 0.0 4.8 0.03 0.25 0.25 84 1001.2
20260507191426 15 165 1.6 4.8 0.03 0.25 0.25 84 1001.2
20260507191326 15 164 0.0 4.8 0.03 0.25 0.25 84 1001.1
20260507191226 15 166 1.6 4.8 0.03 0.25 0.25 84 1000.9
20260507191126 15 171 1.6 4.8 0.03 0.25 0.25 84 1001.1
20260507191026 15 167 0.0 3.2 0.03 0.25 0.25 84 1001.1
20260507190926 15 181 1.6 3.2 0.00 0.23 0.23 84 1001.0
20260507190826 15 181 0.0 3.2 0.00 0.23 0.23 84 1001.0
20260507190726 15 174 0.0 3.2 0.00 0.23 0.23 84 1001.3
20260507190625 15 158 0.0 4.8 0.00 0.23 0.23 84 1001.1
20260507190525 15 153 0.0 4.8 0.00 0.23 0.23 84 1000.9
20260507190426 15 150 0.0 4.8 0.00 0.23 0.23 84 1001.0
20260507190326 15 146 0.0 4.8 0.00 0.23 0.23 84 1001.0
20260507190226 15 137 0.0 4.8 0.00 0.23 0.23 84 1001.0
20260507190126 15 139 0.0 4.8 0.00 0.23 0.23 84 1001.0
20260507190026 15 141 0.0 4.8 0.00 0.23 0.23 84 1001.0
20260507185926 15 141 0.0 4.8 0.00 0.23 0.23 84 1001.0
20260507185826 15 141 1.6 4.8 0.00 0.23 0.23 84 1001.0
20260507185726 15 143 0.0 4.8 0.00 0.23 0.23 84 1001.1
20260507185626 15 148 1.6 4.8 0.00 0.23 0.23 84 1000.9
20260507185525 15 151 0.0 4.8 0.00 0.23 0.23 84 1000.9
20260507185426 15 159 0.0 4.8 0.00 0.23 0.23 84 1001.1
20260507185326 15 162 0.0 4.8 0.00 0.23 0.23 84 1001.1
20260507185225 15 172 0.0 4.8 0.00 0.23 0.23 84 1000.9
20260507185125 15 173 0.0 4.8 0.00 0.23 0.23 84 1001.1
20260507185025 15 170 0.0 4.8 0.00 0.23 0.23 84 1001.1
20260507184926 15 163 0.0 4.8 0.00 0.23 0.23 84 1001.0
20260507184826 15 160 1.6 4.8 0.00 0.23 0.23 84 1001.0
20260507184725 15 154 1.6 4.8 0.00 0.23 0.23 84 1000.9
20260507184625 15 152 0.0 4.8 0.00 0.23 0.23 84 1001.0
20260507184526 15 150 3.2 4.8 0.00 0.23 0.23 84 1001.0
20260507184426 15 150 0.0 3.2 0.00 0.23 0.23 84 1001.0
20260507184326 15 152 0.0 3.2 0.00 0.23 0.23 84 1001.0
20260507184226 15 150 0.0 3.2 0.00 0.23 0.23 84 1000.8
20260507184125 15 150 1.6 3.2 0.00 0.23 0.23 84 1001.0
20260507184025 15 149 0.0 3.2 0.00 0.23 0.23 84 1001.1
20260507183926 15 150 0.0 3.2 0.00 0.23 0.23 84 1000.7
20260507183826 15 147 0.0 3.2 0.00 0.23 0.23 84 1000.8
20260507183725 15 148 0.0 3.2 0.00 0.23 0.23 84 1001.0
20260507183626 15 148 0.0 3.2 0.00 0.23 0.23 84 1000.8
20260507183525 15 153 1.6 3.2 0.00 0.23 0.23 84 1001.0
20260507183426 15 153 0.0 4.8 0.00 0.23 0.23 84 1000.9
20260507183325 15 155 1.6 4.8 0.00 0.23 0.23 84 1000.8
20260507183226 15 161 1.6 4.8 0.00 0.23 0.23 84 1000.7
20260507183125 15 166 0.0 4.8 0.00 0.23 0.23 84 1000.8
20260507183025 15 169 0.0 4.8 0.00 0.23 0.23 83 1000.8
20260507182925 15 175 0.0 4.8 0.00 0.23 0.23 83 1000.9
20260507182826 15 179 0.0 4.8 0.00 0.23 0.23 83 1000.8
20260507182726 15 182 0.0 4.8 0.00 0.23 0.23 83 1000.9
20260507182625 15 187 0.0 4.8 0.00 0.23 0.23 83 1000.9
20260507182525 15 185 0.0 4.8 0.00 0.23 0.23 83 1000.9
20260507182425 15 182 1.6 4.8 0.00 0.23 0.23 83 1000.9
20260507182325 15 173 0.0 4.8 0.00 0.23 0.23 83 1000.9
20260507182226 15 170 0.0 3.2 0.00 0.23 0.23 83 1000.9
20260507182126 15 166 0.0 3.2 0.00 0.23 0.23 83 1001.0
20260507182025 15 165 0.0 3.2 0.00 0.23 0.23 83 1000.9
20260507181925 15 156 0.0 3.2 0.00 0.23 0.23 83 1001.0
20260507181825 15 152 0.0 3.2 0.00 0.23 0.23 83 1000.9
20260507181725 15 148 0.0 3.2 0.00 0.23 0.23 83 1000.9
20260507181626 15 145 0.0 3.2 0.00 0.23 0.23 83 1000.8
20260507181525 15 144 0.0 3.2 0.00 0.23 0.23 83 1000.7
20260507181426 15 139 0.0 3.2 0.00 0.23 0.23 83 1000.6
20260507181326 15 146 0.0 4.8 0.00 0.23 0.23 83 1000.6
20260507181226 15 150 0.0 4.8 0.00 0.23 0.23 83 1000.6
20260507181124 15 151 1.6 4.8 0.00 0.23 0.23 83 1000.8
20260507181025 15 154 0.0 4.8 0.00 0.23 0.23 83 1000.8
20260507180926 15 154 0.0 4.8 0.00 0.23 0.23 83 1000.8
20260507180826 15 155 0.0 4.8 0.00 0.23 0.23 83 1000.7
20260507180726 15 156 1.6 4.8 0.00 0.23 0.23 83 1000.7
20260507180626 15 157 0.0 4.8 0.00 0.23 0.23 83 1000.6
20260507180526 15 157 0.0 4.8 0.00 0.23 0.23 83 1000.6
20260507180425 15 165 0.0 8.0 0.00 0.23 0.23 83 1000.5
20260507180325 15 167 3.2 8.0 0.00 0.23 0.23 83 1000.6
20260507180225 15 162 0.0 8.0 0.00 0.23 0.23 83 1000.7
20260507180126 15 158 0.0 8.0 0.00 0.23 0.23 83 1000.6
20260507180026 15 155 0.0 8.0 0.00 0.23 0.23 83 1000.5
20260507175927 15 157 3.2 8.0 0.00 0.23 0.23 83 1000.4
20260507175825 15 159 0.0 8.0 0.00 0.23 0.23 83 1000.3
20260507175725 15 161 0.0 8.0 0.00 0.23 0.23 83 1000.5
20260507175625 15 169 1.6 8.0 0.00 0.23 0.23 83 1000.6
20260507175525 15 167 0.0 8.0 0.00 0.23 0.23 83 1000.5
20260507175426 15 166 4.8 8.0 0.00 0.23 0.23 83 1000.7
20260507175325 15 163 0.0 4.8 0.00 0.23 0.23 83 1000.5
20260507175225 15 170 3.2 4.8 0.00 0.23 0.23 83 1000.4
20260507175126 15 176 0.0 3.2 0.00 0.23 0.23 83 1000.3
20260507175025 15 178 0.0 3.2 0.00 0.23 0.23 83 1000.5
20260507174926 15 178 0.0 4.8 0.00 0.23 0.23 83 1000.4
20260507174825 15 186 0.0 4.8 0.00 0.23 0.23 83 1000.4
20260507174725 15 191 1.6 4.8 0.00 0.23 0.23 83 1000.4
20260507174625 15 185 0.0 4.8 0.00 0.23 0.23 83 1000.4
20260507174526 15 186 1.6 4.8 0.00 0.23 0.23 82 1000.4
20260507174426 15 185 1.6 4.8 0.00 0.23 0.23 82 1000.4
20260507174326 15 182 0.0 4.8 0.00 0.23 0.23 82 1000.3
20260507174226 15 175 0.0 4.8 0.00 0.23 0.23 82 1000.3
20260507174125 15 172 0.0 4.8 0.00 0.23 0.23 82 1000.3
20260507174025 15 168 0.0 4.8 0.00 0.23 0.23 82 1000.3
20260507173926 15 170 3.2 4.8 0.00 0.23 0.23 82 1000.4
20260507173826 15 159 0.0 4.8 0.00 0.23 0.23 82 1000.2
20260507173726 15 148 3.2 4.8 0.00 0.23 0.23 82 1000.4
20260507173626 15 141 1.6 3.2 0.00 0.23 0.23 82 1000.4
20260507173526 15 141 0.0 3.2 0.00 0.23 0.23 82 1000.1
20260507173425 15 139 0.0 3.2 0.00 0.23 0.23 82 1000.2
20260507173325 15 141 1.6 3.2 0.00 0.23 0.23 82 1000.2
20260507173226 15 148 1.6 3.2 0.00 0.23 0.23 82 1000.2
20260507173126 15 164 0.0 3.2 0.00 0.23 0.23 82 1000.1
20260507173025 15 169 0.0 3.2 0.00 0.23 0.23 82 1000.4
20260507172924 15 153 0.0 3.2 0.00 0.23 0.23 82 1000.2
20260507172825 15 157 0.0 3.2 0.00 0.23 0.23 82 1000.4
20260507172725 15 155 0.0 4.8 0.00 0.23 0.23 82 1000.2
20260507172626 15 165 0.0 4.8 0.00 0.23 0.23 82 1000.2
20260507172526 15 181 0.0 4.8 0.00 0.23 0.23 82 1000.1
20260507172426 15 178 0.0 4.8 0.00 0.23 0.23 82 1000.2
20260507172326 15 179 0.0 4.8 0.00 0.23 0.23 82 1000.3
20260507172225 15 179 1.6 4.8 0.00 0.23 0.23 82 1000.2
20260507172126 15 174 0.0 6.4 0.00 0.23 0.23 82 1000.2
20260507172026 15 168 0.0 8.0 0.00 0.23 0.23 82 1000.2
20260507171925 15 167 0.0 8.0 0.00 0.23 0.23 82 1000.4
20260507171826 15 166 1.6 8.0 0.00 0.23 0.23 82 1000.3
20260507171725 15 169 1.6 8.0 0.00 0.23 0.23 81 1000.2
20260507171625 15 172 1.6 8.0 0.00 0.23 0.23 81 1000.1
20260507171526 15 169 1.6 8.0 0.00 0.23 0.23 81 1000.2
20260507171425 15 169 0.0 8.0 0.00 0.23 0.23 81 1000.4
20260507171325 15 166 0.0 8.0 0.00 0.23 0.23 81 1000.2
20260507171226 15 165 0.0 8.0 0.00 0.23 0.23 81 1000.2
20260507171126 15 164 4.8 8.0 0.00 0.23 0.23 81 1000.1
20260507171025 15 171 0.0 4.8 0.00 0.23 0.23 81 1000.2
20260507170925 15 172 1.6 4.8 0.00 0.23 0.23 81 1000.3
20260507170825 15 171 1.6 4.8 0.00 0.23 0.23 81 1000.2
20260507170726 15 164 3.2 4.8 0.00 0.23 0.23 81 1000.2
20260507170625 15 154 1.6 3.2 0.00 0.23 0.23 81 1000.2
20260507170527 15 149 0.0 3.2 0.00 0.23 0.23 81 1000.1
20260507170426 15 148 1.6 3.2 0.00 0.23 0.23 81 1000.1
20260507170326 15 149 0.0 3.2 0.00 0.23 0.23 81 1000.2
20260507170226 15 146 0.0 3.2 0.00 0.23 0.23 81 1000.2
20260507170126 15 143 0.0 3.2 0.00 0.23 0.23 81 1000.3
20260507170024 15 140 0.0 3.2 0.00 0.23 0.23 81 1000.2
20260507165926 15 144 0.0 3.2 0.00 0.23 0.23 81 1000.1
20260507165825 15 149 0.0 3.2 0.00 0.23 0.23 81 1000.2
20260507165725 15 151 1.6 3.2 0.00 0.23 0.23 81 1000.1
20260507165626 15 153 1.6 3.2 0.00 0.23 0.23 81 999.9
20260507165524 15 165 0.0 1.6 0.00 0.23 0.23 81 1000.2
20260507165425 15 168 0.0 1.6 0.00 0.23 0.23 81 1000.2
20260507165325 15 172 0.0 1.6 0.00 0.23 0.23 81 1000.2
20260507165225 15 171 0.0 1.6 0.00 0.23 0.23 81 1000.2
20260507165125 15 171 0.0 1.6 0.00 0.23 0.23 81 1000.1
20260507165025 15 170 0.0 1.6 0.00 0.23 0.23 81 1000.1
20260507164926 15 165 0.0 1.6 0.00 0.23 0.23 81 1000.2
20260507164826 15 156 0.0 1.6 0.00 0.23 0.23 81 1000.1
20260507164726 15 156 0.0 1.6 0.00 0.23 0.23 81 1000.2
20260507164626 15 163 0.0 1.6 0.00 0.23 0.23 81 1000.1
20260507164526 15 143 0.0 1.6 0.00 0.23 0.23 81 1000.2
20260507164426 15 138 0.0 1.6 0.00 0.23 0.23 81 1000.1
20260507164326 15 135 0.0 1.6 0.00 0.23 0.23 81 1000.1
20260507164225 15 135 0.0 1.6 0.00 0.23 0.23 81 1000.3
20260507164126 15 135 0.0 1.6 0.00 0.23 0.23 81 1000.1
20260507164026 15 135 0.0 1.6 0.00 0.23 0.23 81 1000.3
20260507163926 15 135 0.0 1.6 0.00 0.23 0.23 81 1000.2
20260507163826 15 135 0.0 1.6 0.00 0.23 0.23 81 1000.1
20260507163725 15 135 0.0 1.6 0.00 0.23 0.23 81 1000.1
20260507163625 15 135 0.0 1.6 0.00 0.23 0.23 81 1000.1
20260507163525 15 135 0.0 1.6 0.03 0.23 0.23 81 1000.1
20260507163425 15 137 0.0 0.0 0.03 0.23 0.23 82 1000.1
20260507163325 15 138 0.0 0.0 0.03 0.23 0.23 82 1000.2
20260507163225 15 138 0.0 0.0 0.03 0.23 0.23 82 1000.2
20260507163125 15 138 0.0 0.0 0.03 0.23 0.23 82 1000.2
20260507163026 15 137 0.0 1.6 0.03 0.23 0.23 82 1000.1
20260507162925 15 137 0.0 1.6 0.03 0.23 0.23 82 1000.1
20260507162826 15 133 0.0 1.6 0.03 0.23 0.23 82 1000.1
20260507162725 15 133 0.0 1.6 0.03 0.23 0.23 82 1000.1
20260507162626 15 133 0.0 1.6 0.03 0.23 0.23 82 1000.1
20260507162525 15 133 0.0 1.6 0.03 0.23 0.23 82 999.9
20260507162425 15 132 0.0 1.6 0.03 0.23 0.23 82 1000.1
20260507162325 15 130 0.0 1.6 0.03 0.23 0.23 82 1000.2
20260507162225 15 130 0.0 1.6 0.03 0.23 0.23 82 1000.3
20260507162125 15 130 0.0 1.6 0.03 0.23 0.23 82 1000.1
20260507162025 15 129 0.0 1.6 0.03 0.23 0.23 82 1000.1
20260507161926 15 128 0.0 1.6 0.03 0.23 0.23 82 1000.3
20260507161826 15 137 0.0 1.6 0.03 0.23 0.23 82 1000.2
20260507161726 15 143 0.0 1.6 0.03 0.23 0.23 82 1000.1
20260507161625 15 143 0.0 1.6 0.03 0.23 0.23 82 1000.1
20260507161526 15 142 0.0 1.6 0.03 0.23 0.23 82 1000.3
20260507161426 15 142 0.0 1.6 0.03 0.23 0.23 82 1000.3
20260507161326 15 145 0.0 1.6 0.03 0.23 0.23 82 1000.1
20260507161226 15 146 0.0 1.6 0.03 0.23 0.23 82 1000.1
20260507161126 15 146 0.0 1.6 0.03 0.23 0.23 82 1000.1
20260507161025 15 146 0.0 1.6 0.03 0.23 0.23 82 1000.1
20260507160926 15 146 0.0 1.6 0.03 0.23 0.23 82 1000.2
20260507160826 15 144 0.0 1.6 0.03 0.23 0.23 82 1000.1
20260507160726 15 140 0.0 1.6 0.03 0.23 0.23 82 1000.3
20260507160626 15 142 0.0 1.6 0.03 0.23 0.23 82 1000.1
20260507160526 15 155 0.0 1.6 0.03 0.23 0.23 82 1000.3
20260507160426 15 157 0.0 1.6 0.03 0.23 0.23 82 1000.1
20260507160326 15 148 0.0 3.2 0.03 0.23 0.23 82 1000.2
20260507160225 15 143 0.0 3.2 0.03 0.23 0.23 82 1000.3
20260507160126 15 147 0.0 3.2 0.03 0.23 0.23 82 1000.1
20260507160026 15 147 0.0 3.2 0.03 0.23 0.23 82 1000.4
20260507155925 15 142 0.0 3.2 0.03 0.23 0.23 82 1000.1
20260507155826 15 140 0.0 3.2 0.03 0.23 0.23 82 1000.4
20260507155726 15 139 0.0 3.2 0.03 0.23 0.23 81 1000.3
20260507155626 15 138 0.0 3.2 0.03 0.23 0.23 81 1000.3
20260507155526 15 130 0.0 3.2 0.03 0.23 0.23 81 1000.4
20260507155426 15 129 0.0 3.2 0.03 0.23 0.23 81 1000.5
20260507155325 15 130 0.0 1.6 0.03 0.23 0.23 81 1000.4
20260507155226 15 132 0.0 1.6 0.03 0.23 0.23 81 1000.4
20260507155126 15 128 0.0 1.6 0.03 0.23 0.23 81 1000.2
20260507155026 15 123 0.0 1.6 0.03 0.23 0.23 81 1000.4
20260507154926 15 126 0.0 1.6 0.03 0.23 0.23 81 1000.2
20260507154825 15 130 0.0 1.6 0.03 0.23 0.23 81 1000.4
20260507154725 15 130 0.0 3.2 0.05 0.23 0.23 81 1000.3
20260507154626 15 131 0.0 3.2 0.05 0.23 0.23 81 1000.2
20260507154526 15 131 0.0 3.2 0.05 0.23 0.23 81 1000.3
20260507154426 15 131 0.0 3.2 0.05 0.23 0.23 81 1000.4
20260507154326 15 134 0.0 3.2 0.05 0.23 0.23 81 1000.5
20260507154226 15 136 0.0 3.2 0.05 0.23 0.23 81 1000.2
20260507154127 15 136 0.0 3.2 0.05 0.23 0.23 81 1000.5
20260507154045 15 141 0.0 3.2 0.05 0.23 0.00
20260507154025 15 141 0.0 3.2 0.05 0.23 0.23 81 1000.3
20260507153925 15 145 0.0 3.2 0.05 0.23 0.23 81 1000.5
20260507153825 15 146 1.6 3.2 0.05 0.23 0.23 81 1000.2
20260507153732 15 146 0.0 3.2 0.03 0.20 0.20 81 1000.3
20260507153726 15 149 0.0 3.2 0.05 0.23 0.23 81 1000.5
20260507153626 15 143 0.0 3.2 0.03 0.20 0.20 81 1000.4
20260507153527 15 146 0.0 3.2 0.03 0.20 0.20 81 1000.3
20260507153435 15 133 0.0 3.2 0.03 0.20 0.20 80 1000.2
20260507153425 15 149 0.0 1.6 0.03 0.20 0.20 80 1000.3
20260507153331 15 131 0.0 3.2 0.03 0.20 0.20 80 1000.3
20260507153325 15 138 0.0 3.2 0.03 0.20 0.20 80 1000.5
20260507153226 15 133 0.0 3.2 0.03 0.20 0.20 80 1000.2
20260507153125 15 134 0.0 3.2 0.03 0.20 0.20 80 1000.4
20260507153104 15 127 0.0 3.2 0.03 0.20 0.20 80 1000.3
20260507153025 15 131 0.0 3.2 0.03 0.20 0.20 80 1000.3
20260507152932 15 135 0.0 3.2 0.03 0.20 0.20 81 1000.3
20260507152926 15 127 0.0 3.2 0.03 0.20 0.20 80 1000.4
20260507152912 15 135 0.0 3.2 0.03 0.20 0.20 81 1000.3
20260507152832 15 135 0.0 1.6 0.03 0.20 0.20 81 1000.4
20260507152826 15 127 0.0 3.2 0.03 0.20 0.20 80 1000.3
20260507152726 15 127 0.0 3.2 0.03 0.20 0.20 81 1000.3
20260507152626 15 135 0.0 3.2 0.03 0.20 0.20 81 1000.5
20260507152525 15 135 0.0 3.2 0.03 0.20 0.20 81 1000.3
20260507152425 15 135 0.0 3.2 0.03 0.20 0.20 81 1000.3
20260507152325 15 135 0.0 3.2 0.03 0.20 0.20 81 1000.5
20260507152225 15 135 0.0 1.6 0.03 0.20 0.20 81 1000.4
20260507152125 15 135 0.0 1.6 0.03 0.20 0.20 81 1000.5
20260507152040 16 135 0.0 1.6 0.03 0.20 0.20 81 1000.3
20260507152025 15 135 0.0 1.6 0.03 0.20 0.20 81 1000.5
20260507151925 16 135 0.0 1.6 0.03 0.20 0.20 81 1000.3
20260507151826 16 135 0.0 1.6 0.03 0.20 0.20 81 1000.3
20260507151726 16 135 0.0 1.6 0.03 0.20 0.20 81 1000.3
20260507151625 16 135 0.0 1.6 0.03 0.20 0.20 81 1000.4
20260507151525 16 135 0.0 1.6 0.03 0.20 0.20 81 1000.3
20260507151425 16 135 0.0 0.0 0.03 0.20 0.20 81 1000.5
20260507151325 16 135 0.0 0.0 0.03 0.20 0.20 81 1000.3
20260507151225 15 135 0.0 0.0 0.03 0.20 0.20 81 1000.5
20260507151125 15 135 0.0 0.0 0.03 0.20 0.20 81 1000.2
20260507151026 15 135 0.0 0.0 0.03 0.20 0.20 81 1000.3
20260507150925 15 147 0.0 1.6 0.03 0.20 0.20 81 1000.3
20260507150825 15 145 0.0 1.6 0.03 0.20 0.20 81 1000.4
20260507150725 15 147 0.0 1.6 0.03 0.20 0.20 81 1000.5
20260507150626 15 149 0.0 1.6 0.03 0.20 0.20 81 1000.5
20260507150526 15 150 0.0 1.6 0.03 0.20 0.20 81 1000.2
20260507150426 15 147 0.0 1.6 0.05 0.20 0.20 81 1000.5
20260507150325 15 147 0.0 1.6 0.05 0.20 0.20 81 1000.3
20260507150227 15 150 0.0 1.6 0.05 0.20 0.20 81 1000.4
20260507150126 15 151 0.0 1.6 0.05 0.20 0.20 81 1000.5
20260507150025 15 153 0.0 1.6 0.05 0.20 0.20 81 1000.4
20260507145925 15 148 0.0 1.6 0.05 0.20 0.20 81 1000.6
20260507145825 15 156 0.0 1.6 0.05 0.20 0.20 81 1000.3
20260507145725 15 152 0.0 1.6 0.08 0.20 0.20 81 1000.3
20260507145626 15 148 0.0 1.6 0.08 0.20 0.20 81 1000.3
20260507145525 15 144 0.0 1.6 0.08 0.20 0.20 81 1000.5
20260507145426 15 145 0.0 1.6 0.08 0.20 0.20 81 1000.4
20260507145326 15 155 0.0 3.2 0.08 0.20 0.20 81 1000.4
20260507145226 15 158 0.0 3.2 0.08 0.20 0.20 81 1000.5
20260507145126 15 160 0.0 3.2 0.08 0.20 0.20 81 1000.3
20260507145026 15 162 0.0 3.2 0.08 0.20 0.20 81 1000.8
20260507144925 15 160 0.0 3.2 0.08 0.20 0.20 81 1000.5
20260507144827 15 162 0.0 3.2 0.08 0.20 0.20 81 1000.6
20260507144727 15 162 0.0 3.2 0.05 0.18 0.18 81 1000.5
20260507144625 16 164 0.0 3.2 0.05 0.18 0.18 81 1000.5
20260507144526 16 159 0.0 4.8 0.05 0.18 0.18 81 1000.6
20260507144427 16 167 0.0 9.7 0.05 0.18 0.18 81 1000.5
20260507144326 16 167 0.0 9.7 0.05 0.18 0.18 81 1000.6
20260507144226 16 164 0.0 9.7 0.05 0.18 0.18 80 1000.5
20260507144125 16 161 0.0 9.7 0.05 0.18 0.18 80 1000.5
20260507144026 16 160 0.0 9.7 0.05 0.18 0.18 80 1000.4
20260507143925 16 160 0.0 9.7 0.05 0.18 0.18 80 1000.4
20260507143826 16 160 0.0 9.7 0.05 0.18 0.18 80 1000.3
20260507143727 16 160 0.0 9.7 0.05 0.18 0.18 80 1000.7
20260507143626 16 160 0.0 9.7 0.05 0.18 0.18 80 1000.2
20260507143526 16 163 0.0 9.7 0.05 0.18 0.18 80 1000.3
20260507143426 16 156 0.0 4.8 0.05 0.18 0.18 80 1000.4
20260507143327 16 157 0.0 4.8 0.05 0.18 0.18 80 1000.2
20260507143225 16 157 0.0 4.8 0.05 0.18 0.18 79 1000.3
20260507143127 16 158 0.0 4.8 0.05 0.18 0.18 79 1000.2
20260507143026 16 154 0.0 4.8 0.05 0.18 0.18 79 1000.2
20260507142926 16 158 1.6 4.8 0.05 0.18 0.18 78 1000.1
20260507142826 16 127 0.0 4.8 0.05 0.18 0.18 78 1000.1
20260507142726 16 127 0.0 4.8 0.05 0.18 0.18 78 1000.0
20260507142626 16 127 0.0 4.8 0.05 0.18 0.18 77 1000.2
20260507142526 16 127 0.0 4.8 0.05 0.18 0.18 77 1000.2
20260507142427 16 127 0.0 4.8 0.05 0.18 0.18 77 1000.2
20260507142326 16 127 0.0 4.8 0.05 0.18 0.18 77 1000.2
20260507142226 16 127 0.0 4.8 0.05 0.18 0.18 76 1000.1
20260507142126 16 125 0.0 4.8 0.05 0.18 0.18 76 1000.2
20260507142025 16 110 1.6 4.8 0.05 0.18 0.18 76 1000.1
20260507141925 16 91 0.0 4.8 0.05 0.18 0.18 76 1000.3
20260507141825 16 0 0.0 0.0 0.05 0.18 0.18 75 1000.2
20260507141725 16 0 0.0 0.0 0.05 0.18 0.18 75 1000.1
20260507141625 16 135 0.0 1.6 0.05 0.18 0.18 75 1000.1
20260507141525 16 139 0.0 1.6 0.05 0.18 0.18 75 1000.1
20260507141426 16 165 0.0 1.6 0.05 0.18 0.18 74 1000.1
20260507141326 16 186 0.0 1.6 0.05 0.18 0.18 74 1000.0
20260507141225 16 194 0.0 1.6 0.05 0.18 0.18 74 1000.0
20260507141125 16 201 0.0 1.6 0.05 0.18 0.18 74 1000.2
20260507141025 16 205 0.0 1.6 0.05 0.18 0.18 74 1000.1
20260507140925 16 203 0.0 1.6 0.05 0.18 0.18 74 1000.0
20260507140825 16 189 0.0 3.2 0.05 0.18 0.18 74 1000.0
20260507140726 16 201 0.0 3.2 0.05 0.18 0.18 74 1000.0
20260507140626 17 205 0.0 3.2 0.05 0.18 0.18 74 1000.0
20260507140525 17 214 0.0 3.2 0.03 0.13 0.13 73 1000.0
20260507140425 17 213 0.0 3.2 0.03 0.13 0.13 73 1000.1
20260507140325 17 212 0.0 3.2 0.03 0.13 0.13 73 1000.2
20260507140225 17 210 0.0 3.2 0.03 0.13 0.13 73 1000.0
20260507140125 17 212 0.0 3.2 0.03 0.13 0.13 73 1000.0
20260507140025 17 213 0.0 3.2 0.03 0.13 0.13 73 1000.1
20260507135926 17 225 0.0 3.2 0.03 0.13 0.13 74 1000.0
20260507135825 17 240 0.0 3.2 0.00 0.10 0.10 71 1000.0
20260507135725 17 246 0.0 3.2 0.00 0.10 0.10 71 1000.1
20260507135625 17 255 0.0 3.2 0.00 0.10 0.10 71 1000.0
20260507135526 17 255 0.0 3.2 0.00 0.10 0.10 71 1000.0
20260507135427 17 255 0.0 3.2 0.00 0.10 0.10 71 1000.1
20260507135325 17 255 0.0 3.2 0.03 0.10 0.10 71 1000.0
20260507135225 17 253 0.0 3.2 0.03 0.10 0.10 71 1000.0
20260507135126 17 241 0.0 3.2 0.03 0.10 0.10 71 999.8
20260507135025 17 239 0.0 3.2 0.05 0.10 0.10 72 999.8
20260507134925 17 251 0.0 3.2 0.05 0.10 0.10 72 1000.0
20260507134825 17 135 0.0 0.0 0.05 0.10 0.10 72 999.8
20260507134726 17 135 0.0 0.0 0.05 0.10 0.10 72 1000.0
20260507134626 17 135 0.0 0.0 0.05 0.10 0.10 72 999.8
20260507134526 17 192 0.0 0.0 0.08 0.10 0.10 72 999.8
20260507134426 17 229 0.0 0.0 0.08 0.10 0.10 72 999.8
20260507134325 17 229 0.0 0.0 0.08 0.10 0.10 72 1000.0
20260507134225 17 229 0.0 0.0 0.08 0.10 0.10 72 999.9
20260507134125 17 259 0.0 0.0 0.10 0.10 0.10 72 999.9
20260507134025 17 259 0.0 0.0 0.10 0.10 0.10 72 999.8
20260507133926 17 259 0.0 0.0 0.10 0.10 0.10 72 999.7
20260507133826 17 259 0.0 0.0 0.10 0.10 0.10 72 999.8
20260507133726 17 259 0.0 0.0 0.10 0.10 0.10 72 999.6
20260507133627 18 259 0.0 0.0 0.10 0.10 0.10 72 999.8
20260507133527 18 267 0.0 0.0 0.10 0.10 0.10 72 999.7
20260507133426 18 0 0.0 0.0 0.10 0.10 0.10 72 999.8
20260507133325 18 0 0.0 0.0 0.10 0.10 0.10 73 999.7
20260507133225 18 0 0.0 0.0 0.10 0.10 0.10 73 999.7
20260507133125 18 0 0.0 0.0 0.10 0.10 0.10 73 999.8
20260507133026 18 0 0.0 0.0 0.10 0.10 0.10 73 999.6
20260507132925 18 0 0.0 0.0 0.10 0.10 0.10 73 999.7
20260507132826 18 0 0.0 0.0 0.10 0.10 0.10 73 999.7
20260507132725 18 0 0.0 0.0 0.10 0.10 0.10 73 999.7
20260507132626 18 0 0.0 0.0 0.10 0.10 0.10 73 999.7
20260507132526 18 0 0.0 0.0 0.10 0.10 0.10 73 999.6
20260507132425 18 0 0.0 0.0 0.10 0.10 0.10 73 999.7
20260507132325 18 0 0.0 0.0 0.10 0.10 0.10 73 999.6
20260507132225 18 0 0.0 0.0 0.10 0.10 0.10 73 999.6
20260507132125 17 0 0.0 0.0 0.10 0.10 0.10 73 999.8
20260507132026 17 0 0.0 0.0 0.10 0.10 0.10 73 999.7
20260507131925 17 0 0.0 0.0 0.10 0.10 0.10 73 999.9
20260507131825 17 0 0.0 0.0 0.10 0.10 0.10 73 999.6
20260507131725 17 0 0.0 0.0 0.10 0.10 0.10 73 999.5
20260507131625 17 0 0.0 0.0 0.10 0.10 0.10 73 999.7
20260507131526 17 0 0.0 0.0 0.10 0.10 0.10 73 999.9
20260507131426 17 0 0.0 0.0 0.10 0.10 0.10 73 999.8
20260507131326 17 0 0.0 0.0 0.10 0.10 0.10 73 999.8
20260507131226 17 0 0.0 0.0 0.10 0.10 0.10 73 999.6
20260507131126 17 0 0.0 0.0 0.10 0.10 0.10 73 999.8
20260507131025 17 0 0.0 0.0 0.10 0.10 0.10 72 999.7
20260507130926 17 0 0.0 0.0 0.10 0.10 0.10 72 999.6
20260507130825 17 0 0.0 0.0 0.10 0.10 0.10 72 999.8
20260507130727 17 0 0.0 0.0 0.10 0.10 0.10 72 999.6
20260507130625 17 0 0.0 0.0 0.10 0.10 0.10 72 999.6
20260507130525 17 0 0.0 0.0 0.10 0.10 0.10 71 999.6
20260507130426 17 0 0.0 0.0 0.10 0.10 0.10 71 999.7
20260507130326 17 0 0.0 0.0 0.10 0.10 0.10 71 999.7
20260507130226 17 0 0.0 0.0 0.10 0.10 0.10 71 999.5
20260507130125 17 0 0.0 0.0 0.10 0.10 0.10 71 999.8
20260507130026 17 139 0.0 1.6 0.10 0.10 0.10 71 999.8
20260507125925 17 160 0.0 1.6 0.10 0.10 0.10 71 999.8
20260507125825 17 130 0.0 1.6 0.10 0.10 0.10 70 999.8
20260507125725 17 208 0.0 1.6 0.10 0.10 0.10 72 999.7
20260507125625 17 208 0.0 1.6 0.10 0.10 0.10 70 999.7
20260507125525 17 222 0.0 3.2 0.10 0.10 0.10 70 999.8
20260507125426 17 253 0.0 3.2 0.08 0.08 0.08 69 999.8
20260507125326 17 256 0.0 3.2 0.08 0.08 0.08 68 999.8
20260507125225 17 249 0.0 3.2 0.08 0.08 0.08 68 999.9
20260507125126 17 249 0.0 3.2 0.08 0.08 0.08 67 999.8
20260507125025 17 260 0.0 3.2 0.05 0.05 0.05 66 1000.0
20260507124926 17 262 0.0 3.2 0.05 0.05 0.05 66 1000.1
20260507124826 18 256 0.0 3.2 0.05 0.05 0.05 66 1000.1
20260507124725 18 257 0.0 3.2 0.05 0.05 0.05 65 1000.0
20260507124625 18 258 0.0 3.2 0.03 0.03 0.03 64 1000.0
20260507124526 18 257 0.0 3.2 0.03 0.03 0.03 64 1000.2
20260507124425 18 242 0.0 3.2 0.03 0.03 0.03 64 999.9
20260507124326 18 225 0.0 1.6 0.03 0.03 0.03 63 999.9
20260507124226 18 0 0.0 0.0 0.03 0.03 0.03 63 999.9
20260507124125 19 0 0.0 0.0 0.00 0.00 0.00 62 1000.1
20260507124025 19 0 0.0 0.0 0.00 0.00 0.00 62 1000.0
20260507123926 19 0 0.0 0.0 0.00 0.00 0.00 61 999.8
20260507123825 19 0 0.0 0.0 0.00 0.00 0.00 61 999.7
20260507123726 19 0 0.0 0.0 0.00 0.00 0.00 61 999.8
20260507123626 19 181 0.0 0.0 0.00 0.00 0.00 60 999.8
20260507123526 19 181 0.0 0.0 0.00 0.00 0.00 60 999.9
20260507123426 19 181 0.0 0.0 0.00 0.00 0.00 60 999.7
20260507123327 19 181 0.0 0.0 0.00 0.00 0.00 60 999.6
20260507123225 19 181 0.0 0.0 0.00 0.00 0.00 60 999.6
20260507123126 19 181 0.0 0.0 0.00 0.00 0.00 60 999.7
20260507123025 19 179 0.0 0.0 0.00 0.00 0.00 60 999.7
20260507122926 19 310 0.0 1.6 0.00 0.00 0.00 60 999.7
20260507122825 19 311 0.0 1.6 0.00 0.00 0.00 60 999.8
20260507122725 19 311 0.0 1.6 0.00 0.00 0.00 60 999.7
20260507122626 20 326 0.0 1.6 0.00 0.00 0.00 60 999.6
20260507122526 20 326 0.0 1.6 0.00 0.00 0.00 60 999.8
20260507122425 20 326 0.0 1.6 0.00 0.00 0.00 60 999.7
20260507122325 20 326 0.0 1.6 0.00 0.00 0.00 60 999.7
20260507122226 20 326 0.0 1.6 0.00 0.00 0.00 60 999.7
20260507122125 20 326 0.0 1.6 0.00 0.00 0.00 61 999.6
20260507122025 20 314 0.0 1.6 0.00 0.00 0.00 61 999.6
20260507121926 20 314 0.0 1.6 0.00 0.00 0.00 60 999.6
20260507121826 20 0 0.0 0.0 0.00 0.00 0.00 60 999.7
20260507121725 20 0 0.0 0.0 0.00 0.00 0.00 60 999.5
20260507121625 20 314 0.0 0.0 0.00 0.00 0.00 60 999.5
20260507121525 20 314 0.0 0.0 0.00 0.00 0.00 59 999.6
20260507121426 20 314 0.0 0.0 0.00 0.00 0.00 59 999.6
20260507121325 20 314 0.0 0.0 0.00 0.00 0.00 58 999.7
20260507121227 20 314 0.0 0.0 0.00 0.00 0.00 57 999.6
20260507121127 20 314 0.0 0.0 0.00 0.00 0.00 57 999.6
20260507121026 20 314 0.0 0.0 0.00 0.00 0.00 56 999.6
20260507120925 20 314 0.0 0.0 0.00 0.00 0.00 56 999.7
20260507120826 21 314 0.0 0.0 0.00 0.00 0.00 55 999.6
20260507120727 21 314 0.0 0.0 0.00 0.00 0.00 54 999.6
20260507120625 21 314 0.0 0.0 0.00 0.00 0.00 53 999.8
20260507120526 21 0 0.0 0.0 0.00 0.00 0.00 52 999.8
20260507120425 21 0 0.0 0.0 0.00 0.00 0.00 52 999.7
20260507120325 21 0 0.0 0.0 0.00 0.00 0.00 52 999.7
20260507120226 21 0 0.0 0.0 0.00 0.00 0.00 52 999.7
20260507120125 21 0 0.0 0.0 0.00 0.00 0.00 52 999.7
20260507120026 21 0 0.0 0.0 0.00 0.00 0.00 52 999.7
20260507115927 21 0 0.0 0.0 0.00 0.00 0.00 52 999.7
20260507115826 21 0 0.0 0.0 0.00 0.00 0.00 52 999.6
20260507115725 21 0 0.0 0.0 0.00 0.00 0.00 52 999.6
20260507115626 21 0 0.0 0.0 0.00 0.00 0.00 52 999.8
20260507115526 21 0 0.0 0.0 0.00 0.00 0.00 52 999.6
20260507115426 21 0 0.0 0.0 0.00 0.00 0.00 52 999.5
20260507115325 21 0 0.0 0.0 0.00 0.00 0.00 52 999.6
20260507115225 21 0 0.0 0.0 0.00 0.00 0.00 52 999.6
20260507115125 21 0 0.0 0.0 0.00 0.00 0.00 52 999.7
20260507115025 21 0 0.0 0.0 0.00 0.00 0.00 52 999.6
20260507114927 21 0 0.0 0.0 0.00 0.00 0.00 52 999.6
20260507114825 21 0 0.0 0.0 0.00 0.00 0.00 52 999.6
20260507114726 21 0 0.0 0.0 0.00 0.00 0.00 52 999.6
20260507114626 21 0 0.0 0.0 0.00 0.00 0.00 52 999.5
20260507114526 21 0 0.0 0.0 0.00 0.00 0.00 52 999.5
20260507114426 21 0 0.0 0.0 0.00 0.00 0.00 52 999.4
20260507114326 21 0 0.0 0.0 0.00 0.00 0.00 52 999.4
20260507114225 21 0 0.0 0.0 0.00 0.00 0.00 52 999.4
20260507114127 21 0 0.0 0.0 0.00 0.00 0.00 51 999.3
20260507114025 22 0 0.0 0.0 0.00 0.00 0.00 51 999.6
20260507113926 22 0 0.0 0.0 0.00 0.00 0.00 52 999.4
20260507113826 22 0 0.0 0.0 0.00 0.00 0.00 52 999.4
20260507113726 21 0 0.0 0.0 0.00 0.00 0.00 52 999.3
20260507113626 21 0 0.0 0.0 0.00 0.00 0.00 52 999.4
20260507113526 21 0 0.0 0.0 0.00 0.00 0.00 51 999.6
20260507113425 21 0 0.0 0.0 0.00 0.00 0.00 51 999.8
20260507113325 21 0 0.0 0.0 0.00 0.00 0.00 51 999.5
20260507113227 21 0 0.0 0.0 0.00 0.00 0.00 51 999.6
20260507113126 21 0 0.0 0.0 0.00 0.00 0.00 51 999.4
20260507113026 21 0 0.0 0.0 0.00 0.00 0.00 51 999.5
20260507112927 21 0 0.0 0.0 0.00 0.00 0.00 51 999.7
20260507112825 22 188 0.0 0.0 0.00 0.00 0.00 50 999.4
20260507112725 22 203 0.0 0.0 0.00 0.00 0.00 50 999.6
20260507112626 22 203 0.0 0.0 0.00 0.00 0.00 50 999.6
20260507112526 22 203 0.0 0.0 0.00 0.00 0.00 50 999.5
20260507112425 22 196 0.0 0.0 0.00 0.00 0.00 50 999.6
20260507112325 22 203 0.0 0.0 0.00 0.00 0.00 50 999.5
20260507112225 22 184 0.0 0.0 0.00 0.00 0.00 46 999.6
20260507112125 22 150 0.0 0.0 0.00 0.00 0.00 46 999.7
20260507112026 22 141 0.0 0.0 0.00 0.00 0.00 47 999.5
20260507111925 22 141 0.0 0.0 0.00 0.00 0.00 47 999.4
20260507111825 22 90 0.0 0.0 0.00 0.00 0.00 46 999.4
20260507111725 22 65 0.0 0.0 0.00 0.00 0.00 46 999.5
20260507111625 22 165 0.0 4.8 0.00 0.00 0.00 46 999.4
20260507111526 22 250 0.0 4.8 0.00 0.00 0.00 46 999.4
20260507111425 22 280 0.0 4.8 0.00 0.00 0.00 46 999.5
20260507111327 22 250 0.0 4.8 0.00 0.00 0.00 47 999.4
20260507111226 22 254 0.0 4.8 0.00 0.00 0.00 47 999.5
20260507111126 22 249 0.0 4.8 0.00 0.00 0.00 47 999.5
20260507111025 22 248 0.0 4.8 0.00 0.00 0.00 50 999.5
20260507110926 22 248 0.0 4.8 0.00 0.00 0.00 50 999.5
20260507110825 22 248 0.0 4.8 0.00 0.00 0.00 50 999.2
20260507110726 22 278 0.0 4.8 0.00 0.00 0.00 50 999.6
20260507110625 22 337 0.0 4.8 0.00 0.00 0.00 51 999.4
20260507110525 22 1 0.0 4.8 0.00 0.00 0.00 52 999.3
20260507110425 22 1 0.0 4.8 0.00 0.00 0.00 52 999.4
20260507110325 22 1 0.0 4.8 0.00 0.00 0.00 52 999.4
20260507110227 22 1 0.0 4.8 0.00 0.00 0.00 52 999.4
20260507110126 22 1 0.0 4.8 0.00 0.00 0.00 52 999.4
20260507110026 22 1 0.0 4.8 0.00 0.00 0.00 52 999.5
20260507105925 22 1 0.0 4.8 0.00 0.00 0.00 52 999.5
20260507105825 22 1 0.0 4.8 0.00 0.00 0.00 52 999.4
20260507105725 22 1 0.0 4.8 0.00 0.00 0.00 52 999.5
20260507105625 22 0 0.0 0.0 0.00 0.00 0.00 52 999.4
20260507105525 22 0 0.0 0.0 0.00 0.00 0.00 52 999.4
20260507105425 22 0 0.0 0.0 0.00 0.00 0.00 51 999.3
20260507105326 22 0 0.0 0.0 0.00 0.00 0.00 51 999.6
20260507105225 22 0 0.0 0.0 0.00 0.00 0.00 51 999.2
20260507105125 22 0 0.0 0.0 0.00 0.00 0.00 51 999.4
20260507105025 22 0 0.0 0.0 0.00 0.00 0.00 51 999.3
20260507104927 22 0 0.0 0.0 0.00 0.00 0.00 51 999.4
20260507104826 22 0 0.0 0.0 0.00 0.00 0.00 49 999.4
20260507104726 22 0 0.0 0.0 0.00 0.00 0.00 51 999.4
20260507104625 22 0 0.0 0.0 0.00 0.00 0.00 48 999.5
20260507104527 22 0 0.0 0.0 0.00 0.00 0.00 48 999.4
20260507104425 22 0 0.0 0.0 0.00 0.00 0.00 48 999.4
20260507104325 22 0 0.0 0.0 0.00 0.00 0.00 48 999.6
20260507104225 22 0 0.0 0.0 0.00 0.00 0.00 48 999.4
20260507104125 22 0 0.0 0.0 0.00 0.00 0.00 48 999.3
20260507104026 22 0 0.0 0.0 0.00 0.00 0.00 49 999.4
20260507103926 22 0 0.0 0.0 0.00 0.00 0.00 49 999.6
20260507103826 22 0 0.0 0.0 0.00 0.00 0.00 50 999.4
20260507103725 22 0 0.0 0.0 0.00 0.00 0.00 50 999.4
20260507103625 22 0 0.0 0.0 0.00 0.00 0.00 52 999.6
20260507103526 22 0 0.0 0.0 0.00 0.00 0.00 52 999.4
20260507103426 22 0 0.0 0.0 0.00 0.00 0.00 52 999.3
20260507103326 22 0 0.0 0.0 0.00 0.00 0.00 52 999.4
20260507103226 22 0 0.0 0.0 0.00 0.00 0.00 52 999.5
20260507103125 22 0 0.0 0.0 0.00 0.00 0.00 52 999.6
20260507103026 22 337 0.0 0.0 0.00 0.00 0.00 52 999.5
20260507102925 22 325 0.0 0.0 0.00 0.00 0.00 52 999.4
20260507102825 22 325 0.0 0.0 0.00 0.00 0.00 52 999.3
20260507102725 22 325 0.0 0.0 0.00 0.00 0.00 52 999.4
20260507102626 22 325 0.0 0.0 0.00 0.00 0.00 52 999.3
20260507102526 22 325 0.0 0.0 0.00 0.00 0.00 52 999.4
20260507102426 22 325 0.0 0.0 0.00 0.00 0.00 52 999.4
20260507102325 22 325 0.0 0.0 0.00 0.00 0.00 52 999.3
20260507102225 22 344 0.0 0.0 0.00 0.00 0.00 52 999.4
20260507102126 22 351 0.0 0.0 0.00 0.00 0.00 52 999.4
20260507102026 21 356 0.0 0.0 0.00 0.00 0.00 52 999.3
20260507101926 21 78 0.0 0.0 0.00 0.00 0.00 52 999.4
20260507101827 21 90 0.0 0.0 0.00 0.00 0.00 52 999.4
20260507101725 21 90 0.0 0.0 0.00 0.00 0.00 52 999.5
20260507101625 21 125 0.0 1.6 0.00 0.00 0.00 52 999.4
20260507101525 21 128 0.0 1.6 0.00 0.00 0.00 52 999.3
20260507101426 21 128 0.0 1.6 0.00 0.00 0.00 52 999.3
20260507101326 21 128 0.0 1.6 0.00 0.00 0.00 52 999.3
20260507101226 21 131 0.0 1.6 0.00 0.00 0.00 52 999.4
20260507101126 21 135 0.0 1.6 0.00 0.00 0.00 52 999.4
20260507101026 21 135 0.0 1.6 0.00 0.00 0.00 52 999.3
20260507100925 21 135 0.0 1.6 0.00 0.00 0.00 52 999.4
20260507100825 21 135 0.0 1.6 0.00 0.00 0.00 52 999.4
20260507100725 21 135 0.0 1.6 0.00 0.00 0.00 51 999.3
20260507100625 21 135 0.0 1.6 0.00 0.00 0.00 51 999.3
20260507100525 22 0 0.0 0.0 0.00 0.00 0.00 51 999.4
20260507100425 22 0 0.0 0.0 0.00 0.00 0.00 51 999.3
20260507100325 22 0 0.0 0.0 0.00 0.00 0.00 51 999.3
20260507100225 22 0 0.0 0.0 0.00 0.00 0.00 51 999.3
20260507100125 22 0 0.0 0.0 0.00 0.00 0.00 51 999.3
20260507100025 22 0 0.0 0.0 0.00 0.00 0.00 51 999.4
20260507095925 22 0 0.0 0.0 0.00 0.00 0.00 51 999.2
20260507095825 22 0 0.0 0.0 0.00 0.00 0.00 51 999.2
20260507095725 22 0 0.0 0.0 0.00 0.00 0.00 51 999.3
20260507095626 22 0 0.0 0.0 0.00 0.00 0.00 51 999.3
20260507095526 22 181 0.0 0.0 0.00 0.00 0.00 51 999.3
20260507095425 22 270 0.0 1.6 0.00 0.00 0.00 51 999.2
20260507095326 22 333 0.0 1.6 0.00 0.00 0.00 51 999.2
20260507095226 22 333 0.0 1.6 0.00 0.00 0.00 51 999.0
20260507095125 22 333 0.0 1.6 0.00 0.00 0.00 51 999.3
20260507095026 22 333 0.0 1.6 0.00 0.00 0.00 50 999.2
20260507094925 22 333 0.0 1.6 0.00 0.00 0.00 50 999.1
20260507094826 22 333 0.0 1.6 0.00 0.00 0.00 50 999.3
20260507094726 22 333 0.0 1.6 0.00 0.00 0.00 50 999.1
20260507094625 22 333 0.0 1.6 0.00 0.00 0.00 50 999.2
20260507094525 22 335 0.0 1.6 0.00 0.00 0.00 50 998.9
20260507094425 22 347 0.0 1.6 0.00 0.00 0.00 50 999.0
20260507094324 22 1 0.0 1.6 0.00 0.00 0.00 50 999.1
20260507094226 22 0 0.0 0.0 0.00 0.00 0.00 50 999.1
20260507094125 22 270 0.0 1.6 0.00 0.00 0.00 49 999.1
20260507094026 22 270 0.0 1.6 0.00 0.00 0.00 45 999.2
20260507093926 22 270 0.0 1.6 0.00 0.00 0.00 44 999.0
20260507093826 22 270 0.0 1.6 0.00 0.00 0.00 44 998.9
20260507093725 22 270 0.0 1.6 0.00 0.00 0.00 44 999.1
20260507093626 22 298 0.0 1.6 0.00 0.00 0.00 44 999.1
20260507093526 22 298 0.0 1.6 0.00 0.00 0.00 44 999.1
20260507093426 22 298 0.0 1.6 0.00 0.00 0.00 43 998.9
20260507093326 22 298 0.0 1.6 0.00 0.00 0.00 43 999.1
20260507093225 22 298 0.0 1.6 0.00 0.00 0.00 43 999.1
20260507093125 22 10 0.0 1.6 0.00 0.00 0.00 43 998.9
20260507093025 23 34 0.0 0.0 0.00 0.00 0.00 43 999.3
20260507092925 23 34 0.0 0.0 0.00 0.00 0.00 43 999.0
20260507092826 23 34 0.0 0.0 0.00 0.00 0.00 42 999.0
20260507092726 23 349 0.0 0.0 0.00 0.00 0.00 42 999.1
20260507092626 23 270 0.0 3.2 0.00 0.00 0.00 42 999.1
20260507092525 23 11 0.0 4.8 0.00 0.00 0.00 42 998.9
20260507092426 23 26 0.0 4.8 0.00 0.00 0.00 42 999.0
20260507092326 23 19 0.0 4.8 0.00 0.00 0.00 42 998.7
20260507092225 23 15 0.0 4.8 0.00 0.00 0.00 42 998.9
20260507092125 23 15 0.0 4.8 0.00 0.00 0.00 42 998.8
20260507092026 23 12 0.0 4.8 0.00 0.00 0.00 42 998.7
20260507091925 23 12 0.0 4.8 0.00 0.00 0.00 42 998.7
20260507091826 23 12 0.0 4.8 0.00 0.00 0.00 41 998.8
20260507091726 24 19 0.0 4.8 0.00 0.00 0.00 41 998.9
20260507091626 24 27 0.0 4.8 0.00 0.00 0.00 41 998.8
20260507091526 24 104 3.2 4.8 0.00 0.00 0.00 42 998.7
20260507091426 24 207 0.0 3.2 0.00 0.00 0.00 41 998.9
20260507091326 24 191 0.0 3.2 0.00 0.00 0.00 41 998.7
20260507091226 24 170 0.0 3.2 0.00 0.00 0.00 41 998.8
20260507091126 24 170 0.0 3.2 0.00 0.00 0.00 41 998.9
20260507091025 24 174 0.0 3.2 0.00 0.00 0.00 42 998.7
20260507090925 24 174 0.0 3.2 0.00 0.00 0.00 42 998.8
20260507090826 24 179 0.0 3.2 0.00 0.00 0.00 42 998.7
20260507090726 24 204 0.0 3.2 0.00 0.00 0.00 42 998.7
20260507090626 23 185 0.0 3.2 0.00 0.00 0.00 41 998.6
20260507090525 23 203 0.0 0.0 0.00 0.00 0.00 42 998.7
20260507090425 23 203 0.0 0.0 0.00 0.00 0.00 42 998.7
20260507090326 23 203 0.0 0.0 0.00 0.00 0.00 42 998.7
20260507090224 23 203 0.0 0.0 0.00 0.00 0.00 42 998.7
20260507090127 23 203 0.0 0.0 0.00 0.00 0.00 42 998.6
20260507090025 23 203 0.0 0.0 0.00 0.00 0.00 42 998.5
20260507085925 23 203 0.0 0.0 0.00 0.00 0.00 42 998.7
20260507085825 23 250 0.0 0.0 0.00 0.00 0.00 42 998.5
20260507085725 23 29 0.0 0.0 0.00 0.00 0.00 42 998.6
20260507085626 23 354 0.0 0.0 0.00 0.00 0.00 42 998.5
20260507085526 23 328 0.0 0.0 0.00 0.00 0.00 42 998.6
20260507085426 23 318 0.0 0.0 0.00 0.00 0.00 42 998.4
20260507085326 23 318 0.0 0.0 0.00 0.00 0.00 43 998.5
20260507085226 23 318 0.0 0.0 0.00 0.00 0.00 42 998.6
20260507085126 23 318 0.0 0.0 0.00 0.00 0.00 43 998.5
20260507085025 22 318 0.0 0.0 0.00 0.00 0.00 42 998.4
20260507084926 22 318 0.0 0.0 0.00 0.00 0.00 42 998.3
20260507084826 22 312 0.0 0.0 0.00 0.00 0.00 42 998.5
20260507084726 22 277 0.0 0.0 0.00 0.00 0.00 43 998.4
20260507084626 22 208 0.0 8.0 0.00 0.00 0.00 43 998.5
20260507084525 22 188 0.0 8.0 0.00 0.00 0.00 43 998.5
20260507084425 22 187 0.0 8.0 0.00 0.00 0.00 43 998.6
20260507084325 22 196 0.0 8.0 0.00 0.00 0.00 43 998.4
20260507084225 22 196 0.0 8.0 0.00 0.00 0.00 43 998.3
20260507084125 22 196 0.0 8.0 0.00 0.00 0.00 43 998.3
20260507084025 22 196 0.0 8.0 0.00 0.00 0.00 43 998.4
20260507083925 22 196 0.0 8.0 0.00 0.00 0.00 43 998.4
20260507083825 22 196 0.0 8.0 0.00 0.00 0.00 46 998.2
20260507083726 22 195 0.0 8.0 0.00 0.00 0.00 46 998.3
20260507083626 22 198 1.6 8.0 0.00 0.00 0.00 47 998.3
20260507083526 22 220 0.0 4.8 0.00 0.00 0.00 47 998.2
20260507083426 22 225 1.6 4.8 0.00 0.00 0.00 48 998.2
20260507083326 22 0 0.0 0.0 0.00 0.00 0.00 48 998.3
20260507083225 22 0 0.0 0.0 0.00 0.00 0.00 48 998.2
20260507083125 22 0 0.0 0.0 0.00 0.00 0.00 48 998.2
20260507083026 22 0 0.0 0.0 0.00 0.00 0.00 49 998.2
20260507082925 22 0 0.0 0.0 0.00 0.00 0.00 49 998.2
20260507082825 22 0 0.0 0.0 0.00 0.00 0.00 49 998.2
20260507082725 22 0 0.0 0.0 0.00 0.00 0.00 48 998.2
20260507082625 22 0 0.0 0.0 0.00 0.00 0.00 48 998.2
20260507082525 22 0 0.0 0.0 0.00 0.00 0.00 47 998.1
20260507082425 22 270 0.0 0.0 0.00 0.00 0.00 48 998.3
20260507082325 22 203 0.0 3.2 0.00 0.00 0.00 48 998.2
20260507082226 22 175 0.0 3.2 0.00 0.00 0.00 49 998.3
20260507082125 21 175 0.0 3.2 0.00 0.00 0.00 48 998.1
20260507082025 21 175 0.0 3.2 0.00 0.00 0.00 48 998.0
20260507081926 21 175 0.0 3.2 0.00 0.00 0.00 48 998.0
20260507081826 21 175 0.0 3.2 0.00 0.00 0.00 48 998.2
20260507081726 21 175 0.0 3.2 0.00 0.00 0.00 47 998.1
20260507081625 21 185 0.0 3.2 0.00 0.00 0.00 47 998.1
20260507081526 21 215 0.0 3.2 0.00 0.00 0.00 47 998.2
20260507081426 21 200 0.0 3.2 0.00 0.00 0.00 47 998.1
20260507081325 21 209 0.0 3.2 0.00 0.00 0.00 47 998.0
20260507081226 21 270 0.0 1.6 0.00 0.00 0.00 46 998.0
20260507081126 21 270 0.0 1.6 0.00 0.00 0.00 47 997.9
20260507081026 22 270 0.0 1.6 0.00 0.00 0.00 47 997.9
20260507080925 22 270 0.0 1.6 0.00 0.00 0.00 47 998.1
20260507080825 22 270 0.0 1.6 0.00 0.00 0.00 48 998.1
20260507080726 22 270 0.0 1.6 0.00 0.00 0.00 47 998.2
20260507080626 22 270 0.0 1.6 0.00 0.00 0.00 48 998.1
20260507080525 22 0 0.0 0.0 0.00 0.00 0.00 47 998.1
20260507080426 22 314 0.0 3.2 0.00 0.00 0.00 47 998.2
20260507080325 22 296 0.0 3.2 0.00 0.00 0.00 47 998.2
20260507080225 22 288 0.0 3.2 0.00 0.00 0.00 47 998.0
20260507080125 22 283 0.0 3.2 0.00 0.00 0.00 47 998.2
20260507080026 22 283 0.0 3.2 0.00 0.00 0.00 47 998.0
20260507075926 22 278 0.0 3.2 0.00 0.00 0.00 47 998.1
20260507075825 22 272 0.0 3.2 0.00 0.00 0.00 48 998.0
20260507075725 22 272 0.0 3.2 0.00 0.00 0.00 47 998.1
20260507075625 22 272 0.0 3.2 0.00 0.00 0.00 47 998.0
20260507075526 22 272 0.0 3.2 0.00 0.00 0.00 47 997.9
20260507075426 22 227 0.0 0.0 0.00 0.00 0.00 48 997.9
20260507075326 22 277 0.0 1.6 0.00 0.00 0.00 48 997.9
20260507075225 22 309 0.0 1.6 0.00 0.00 0.00 48 997.9
20260507075125 22 330 0.0 1.6 0.00 0.00 0.00 48 998.0
20260507075025 22 328 0.0 1.6 0.00 0.00 0.00 47 997.9
20260507074926 22 336 0.0 1.6 0.00 0.00 0.00 47 997.9
20260507074825 22 1 0.0 1.6 0.00 0.00 0.00 47 997.8
20260507074726 22 1 0.0 1.6 0.00 0.00 0.00 48 997.8
20260507074625 22 343 0.0 1.6 0.00 0.00 0.00 48 997.9
20260507074525 22 292 0.0 1.6 0.00 0.00 0.00 48 997.9
20260507074425 22 292 0.0 1.6 0.00 0.00 0.00 48 997.8
20260507074325 22 226 0.0 1.6 0.00 0.00 0.00 48 997.8
20260507074225 22 215 0.0 0.0 0.00 0.00 0.00 47 997.9
20260507074125 22 215 0.0 0.0 0.00 0.00 0.00 47 997.9
20260507074025 22 215 0.0 0.0 0.00 0.00 0.00 46 997.9
20260507073925 22 215 0.0 0.0 0.00 0.00 0.00 46 998.1
20260507073825 22 215 0.0 0.0 0.00 0.00 0.00 47 997.9
20260507073726 22 215 0.0 0.0 0.00 0.00 0.00 44 998.0
20260507073625 22 212 0.0 0.0 0.00 0.00 0.00 43 997.8
20260507073527 22 203 0.0 0.0 0.00 0.00 0.00 43 997.8
20260507073427 22 0 0.0 0.0 0.00 0.00 0.00 43 998.1
20260507073325 22 0 0.0 0.0 0.00 0.00 0.00 43 998.0
20260507073225 22 0 0.0 0.0 0.00 0.00 0.00 43 998.1
20260507073125 22 0 0.0 0.0 0.00 0.00 0.00 43 997.9
20260507073026 22 0 0.0 0.0 0.00 0.00 0.00 43 997.9
20260507072925 22 0 0.0 0.0 0.00 0.00 0.00 44 997.8
20260507072825 22 0 0.0 0.0 0.00 0.00 0.00 44 998.1
20260507072725 22 0 0.0 0.0 0.00 0.00 0.00 44 997.9
20260507072626 22 0 0.0 0.0 0.00 0.00 0.00 44 997.7
20260507072526 22 0 0.0 0.0 0.00 0.00 0.00 43 997.9
20260507072426 22 0 0.0 0.0 0.00 0.00 0.00 43 997.8
20260507072326 22 0 0.0 0.0 0.00 0.00 0.00 43 997.8
20260507072226 22 0 0.0 0.0 0.00 0.00 0.00 43 997.9
20260507072125 22 0 0.0 0.0 0.00 0.00 0.00 43 997.9
20260507072025 22 0 0.0 0.0 0.00 0.00 0.00 43 997.9
20260507071925 22 0 0.0 0.0 0.00 0.00 0.00 43 997.6
20260507071826 22 0 0.0 0.0 0.00 0.00 0.00 43 997.8
20260507071725 23 135 0.0 0.0 0.00 0.00 0.00 43 997.7
20260507071625 23 135 0.0 0.0 0.00 0.00 0.00 44 997.8
20260507071525 23 135 0.0 0.0 0.00 0.00 0.00 44 997.8
20260507071425 22 135 0.0 0.0 0.00 0.00 0.00 43 997.8
20260507071325 22 135 0.0 0.0 0.00 0.00 0.00 43 997.7
20260507071225 22 135 0.0 0.0 0.00 0.00 0.00 43 997.7
20260507071125 22 135 0.0 0.0 0.00 0.00 0.00 43 997.9
20260507071026 23 135 0.0 0.0 0.00 0.00 0.00 43 997.8
20260507070926 23 135 0.0 0.0 0.00 0.00 0.00 43 997.8
20260507070826 23 135 0.0 0.0 0.00 0.00 0.00 43 997.7
20260507070726 23 135 0.0 0.0 0.00 0.00 0.00 44 997.8
20260507070626 22 0 0.0 0.0 0.00 0.00 0.00 45 997.6
20260507070525 22 0 0.0 0.0 0.00 0.00 0.00 45 997.8
20260507070425 22 0 0.0 0.0 0.00 0.00 0.00 45 997.7
20260507070325 22 0 0.0 0.0 0.00 0.00 0.00 45 997.5
20260507070226 22 0 0.0 0.0 0.00 0.00 0.00 50 997.9
20260507070125 22 0 0.0 0.0 0.00 0.00 0.00 50 997.6
20260507070025 22 0 0.0 0.0 0.00 0.00 0.00 50 997.7
20260507065925 22 0 0.0 0.0 0.00 0.00 0.00 50 997.7
20260507065825 22 0 0.0 0.0 0.00 0.00 0.00 50 997.8
20260507065725 22 0 0.0 0.0 0.00 0.00 0.00 50 997.8
20260507065625 22 0 0.0 0.0 0.00 0.00 0.00 50 997.6
20260507065525 21 0 0.0 0.0 0.00 0.00 0.00 50 997.8
20260507065426 21 0 0.0 0.0 0.00 0.00 0.00 50 997.8
20260507065326 21 0 0.0 0.0 0.00 0.00 0.00 50 997.6
20260507065226 21 0 0.0 0.0 0.00 0.00 0.00 50 997.6
20260507065125 21 0 0.0 0.0 0.00 0.00 0.00 50 997.8
20260507065025 21 0 0.0 0.0 0.00 0.00 0.00 50 997.6
20260507064925 21 0 0.0 0.0 0.00 0.00 0.00 50 997.7
20260507064825 21 0 0.0 0.0 0.00 0.00 0.00 50 997.7
20260507064726 21 0 0.0 0.0 0.00 0.00 0.00 50 997.5
20260507064627 21 0 0.0 0.0 0.00 0.00 0.00 50 997.5
20260507064525 21 0 0.0 0.0 0.00 0.00 0.00 51 997.6
20260507064426 21 0 0.0 0.0 0.00 0.00 0.00 50 997.6
20260507064326 21 0 0.0 0.0 0.00 0.00 0.00 50 997.5
20260507064226 21 0 0.0 0.0 0.00 0.00 0.00 50 997.6
20260507064126 21 0 0.0 0.0 0.00 0.00 0.00 50 997.4
20260507064025 21 0 0.0 0.0 0.00 0.00 0.00 50 997.5
20260507063925 21 0 0.0 0.0 0.00 0.00 0.00 50 997.6
20260507063826 21 0 0.0 0.0 0.00 0.00 0.00 50 997.4
20260507063727 21 0 0.0 0.0 0.00 0.00 0.00 50 997.5
20260507063626 21 0 0.0 0.0 0.00 0.00 0.00 50 997.6
20260507063526 21 0 0.0 0.0 0.00 0.00 0.00 50 997.5
20260507063426 21 0 0.0 0.0 0.00 0.00 0.00 50 997.6
20260507063326 21 0 0.0 0.0 0.00 0.00 0.00 50 997.4
20260507063226 21 0 0.0 0.0 0.00 0.00 0.00 50 997.6
20260507063125 21 0 0.0 0.0 0.00 0.00 0.00 50 997.5
20260507063026 21 0 0.0 0.0 0.00 0.00 0.00 50 997.4
20260507062926 21 0 0.0 0.0 0.00 0.00 0.00 50 997.6
20260507062825 21 0 0.0 0.0 0.00 0.00 0.00 50 997.5
20260507062726 21 0 0.0 0.0 0.00 0.00 0.00 50 997.5
20260507062626 21 0 0.0 0.0 0.00 0.00 0.00 50 997.6
20260507062526 21 0 0.0 0.0 0.00 0.00 0.00 50 997.5
20260507062425 21 0 0.0 0.0 0.00 0.00 0.00 50 997.5
20260507062325 21 0 0.0 0.0 0.00 0.00 0.00 51 997.7
20260507062225 21 0 0.0 0.0 0.00 0.00 0.00 51 997.4
20260507062125 21 0 0.0 0.0 0.00 0.00 0.00 51 997.5
20260507062026 21 0 0.0 0.0 0.00 0.00 0.00 51 997.5
20260507061926 21 0 0.0 0.0 0.00 0.00 0.00 51 997.7
20260507061825 21 0 0.0 0.0 0.00 0.00 0.00 52 997.4
20260507061725 20 0 0.0 0.0 0.00 0.00 0.00 52 997.6
20260507061625 20 0 0.0 0.0 0.00 0.00 0.00 52 997.4
20260507061525 20 0 0.0 0.0 0.00 0.00 0.00 52 997.3
20260507061426 20 0 0.0 0.0 0.00 0.00 0.00 52 997.4
20260507061326 20 0 0.0 0.0 0.00 0.00 0.00 53 997.5
20260507061227 20 0 0.0 0.0 0.00 0.00 0.00 53 997.5
20260507061127 20 0 0.0 0.0 0.00 0.00 0.00 53 997.4
20260507061025 20 0 0.0 0.0 0.00 0.00 0.00 53 997.2
20260507060925 20 0 0.0 0.0 0.00 0.00 0.00 53 997.4
20260507060826 20 0 0.0 0.0 0.00 0.00 0.00 53 997.4
20260507060725 20 0 0.0 0.0 0.00 0.00 0.00 53 997.3
20260507060625 20 0 0.0 0.0 0.00 0.00 0.00 53 997.3
20260507060525 20 0 0.0 0.0 0.00 0.00 0.00 52 997.4
20260507060426 20 0 0.0 0.0 0.00 0.00 0.00 52 997.3
20260507060325 20 0 0.0 0.0 0.00 0.00 0.00 52 997.2
20260507060226 19 0 0.0 0.0 0.00 0.00 0.00 53 997.4
20260507060126 19 0 0.0 0.0 0.00 0.00 0.00 53 997.3
20260507060026 19 0 0.0 0.0 0.00 0.00 0.00 53 997.2
20260507055925 19 0 0.0 0.0 0.00 0.00 0.00 54 997.1
20260507055827 19 0 0.0 0.0 0.00 0.00 0.00 53 997.2
20260507055725 19 0 0.0 0.0 0.00 0.00 0.00 53 997.1
20260507055625 19 0 0.0 0.0 0.00 0.00 0.00 53 997.3
20260507055525 19 0 0.0 0.0 0.00 0.00 0.00 53 997.2
20260507055426 19 0 0.0 0.0 0.00 0.00 0.00 53 997.1
20260507055327 19 0 0.0 0.0 0.00 0.00 0.00 53 997.0
20260507055225 19 0 0.0 0.0 0.00 0.00 0.00 53 997.2
20260507055125 19 0 0.0 0.0 0.00 0.00 0.00 53 997.1
20260507055026 19 0 0.0 0.0 0.00 0.00 0.00 53 997.0
20260507054926 19 0 0.0 0.0 0.00 0.00 0.00 53 996.9
20260507054825 19 0 0.0 0.0 0.00 0.00 0.00 53 997.2
20260507054725 19 0 0.0 0.0 0.00 0.00 0.00 53 996.9
20260507054625 19 0 0.0 0.0 0.00 0.00 0.00 53 997.2
20260507054526 19 0 0.0 0.0 0.00 0.00 0.00 53 997.1
20260507054425 19 0 0.0 0.0 0.00 0.00 0.00 53 997.1
20260507054325 19 0 0.0 0.0 0.00 0.00 0.00 53 997.2
20260507054225 19 0 0.0 0.0 0.00 0.00 0.00 53 997.2
20260507054126 19 0 0.0 0.0 0.00 0.00 0.00 53 997.1
20260507054025 19 0 0.0 0.0 0.00 0.00 0.00 53 997.1
20260507053925 19 0 0.0 0.0 0.00 0.00 0.00 53 997.0
20260507053825 19 0 0.0 0.0 0.00 0.00 0.00 53 996.9
20260507053727 19 0 0.0 0.0 0.00 0.00 0.00 53 997.0
20260507053626 19 0 0.0 0.0 0.00 0.00 0.00 53 997.1
20260507053525 19 0 0.0 0.0 0.00 0.00 0.00 53 997.1
20260507053426 18 0 0.0 0.0 0.00 0.00 0.00 53 997.1
20260507053325 18 0 0.0 0.0 0.00 0.00 0.00 53 997.0
20260507053225 18 0 0.0 0.0 0.00 0.00 0.00 53 997.0
20260507053125 18 0 0.0 0.0 0.00 0.00 0.00 53 996.9
20260507053025 18 0 0.0 0.0 0.00 0.00 0.00 53 997.1
20260507052925 18 0 0.0 0.0 0.00 0.00 0.00 53 997.0
20260507052826 18 0 0.0 0.0 0.00 0.00 0.00 53 996.9
20260507052726 18 0 0.0 0.0 0.00 0.00 0.00 53 997.1
20260507052625 18 0 0.0 0.0 0.00 0.00 0.00 53 997.0
20260507052525 18 0 0.0 0.0 0.00 0.00 0.00 53 997.2
20260507052425 18 0 0.0 0.0 0.00 0.00 0.00 53 997.1
20260507052325 18 0 0.0 0.0 0.00 0.00 0.00 53 997.1
20260507052225 18 0 0.0 0.0 0.00 0.00 0.00 53 997.0
20260507052126 18 0 0.0 0.0 0.00 0.00 0.00 53 997.0
20260507052026 18 0 0.0 0.0 0.00 0.00 0.00 53 996.9
20260507051925 18 0 0.0 0.0 0.00 0.00 0.00 53 996.9
20260507051825 18 0 0.0 0.0 0.00 0.00 0.00 54 996.9
20260507051726 18 0 0.0 0.0 0.00 0.00 0.00 54 996.8
20260507051625 18 0 0.0 0.0 0.00 0.00 0.00 54 996.8
20260507051525 18 0 0.0 0.0 0.00 0.00 0.00 53 996.9
20260507051426 18 0 0.0 0.0 0.00 0.00 0.00 53 996.7
20260507051327 18 0 0.0 0.0 0.00 0.00 0.00 53 996.8
20260507051225 18 0 0.0 0.0 0.00 0.00 0.00 53 996.7
20260507051126 18 0 0.0 0.0 0.00 0.00 0.00 53 996.9
20260507051026 18 0 0.0 0.0 0.00 0.00 0.00 53 996.7
20260507050925 18 0 0.0 0.0 0.00 0.00 0.00 53 996.7
20260507050826 18 0 0.0 0.0 0.00 0.00 0.00 53 996.7
20260507050726 18 0 0.0 0.0 0.00 0.00 0.00 53 996.7
20260507050626 18 0 0.0 0.0 0.00 0.00 0.00 53 996.8
20260507050526 18 0 0.0 0.0 0.00 0.00 0.00 53 996.7
20260507050425 18 0 0.0 0.0 0.00 0.00 0.00 53 996.7
20260507050326 18 0 0.0 0.0 0.00 0.00 0.00 53 996.6
20260507050226 18 0 0.0 0.0 0.00 0.00 0.00 53 996.8
20260507050125 18 0 0.0 0.0 0.00 0.00 0.00 53 996.5
20260507050025 18 0 0.0 0.0 0.00 0.00 0.00 53 996.7
20260507045926 18 0 0.0 0.0 0.00 0.00 0.00 53 996.7
20260507045826 18 0 0.0 0.0 0.00 0.00 0.00 53 996.7
20260507045725 18 0 0.0 0.0 0.00 0.00 0.00 53 996.6
20260507045625 18 0 0.0 0.0 0.00 0.00 0.00 53 996.6
20260507045526 18 0 0.0 0.0 0.00 0.00 0.00 53 996.8
20260507045427 18 0 0.0 0.0 0.00 0.00 0.00 53 996.6
20260507045325 18 0 0.0 0.0 0.00 0.00 0.00 53 996.6
20260507045225 18 0 0.0 0.0 0.00 0.00 0.00 53 996.9
20260507045125 18 0 0.0 0.0 0.00 0.00 0.00 53 996.8
20260507045025 18 0 0.0 0.0 0.00 0.00 0.00 53 996.7
20260507044925 18 0 0.0 0.0 0.00 0.00 0.00 53 996.5
20260507044825 18 0 0.0 0.0 0.00 0.00 0.00 53 996.7
20260507044725 18 0 0.0 0.0 0.00 0.00 0.00 53 996.5
20260507044626 18 0 0.0 0.0 0.00 0.00 0.00 53 996.7
20260507044526 18 0 0.0 0.0 0.00 0.00 0.00 53 996.7
20260507044426 18 0 0.0 0.0 0.00 0.00 0.00 53 996.7
20260507044325 18 0 0.0 0.0 0.00 0.00 0.00 53 996.6
20260507044225 18 0 0.0 0.0 0.00 0.00 0.00 53 996.7
20260507044125 18 0 0.0 0.0 0.00 0.00 0.00 53 996.5
20260507044026 18 0 0.0 0.0 0.00 0.00 0.00 53 996.7
20260507043925 18 0 0.0 0.0 0.00 0.00 0.00 53 996.6
20260507043826 18 0 0.0 0.0 0.00 0.00 0.00 52 996.5
20260507043726 18 0 0.0 0.0 0.00 0.00 0.00 53 996.7
20260507043626 18 0 0.0 0.0 0.00 0.00 0.00 53 996.5
20260507043525 18 0 0.0 0.0 0.00 0.00 0.00 53 996.3
20260507043427 18 0 0.0 0.0 0.00 0.00 0.00 53 996.4
20260507043325 18 0 0.0 0.0 0.00 0.00 0.00 53 996.5
20260507043227 18 0 0.0 0.0 0.00 0.00 0.00 53 996.5
20260507043125 18 0 0.0 0.0 0.00 0.00 0.00 53 996.6
20260507043025 18 0 0.0 0.0 0.00 0.00 0.00 52 996.5
20260507042925 18 0 0.0 0.0 0.00 0.00 0.00 52 996.6
20260507042825 18 0 0.0 0.0 0.00 0.00 0.00 52 996.6
20260507042725 18 0 0.0 0.0 0.00 0.00 0.00 52 996.6
20260507042626 18 0 0.0 0.0 0.00 0.00 0.00 52 996.5
20260507042526 18 0 0.0 0.0 0.00 0.00 0.00 52 996.4
20260507042426 18 0 0.0 0.0 0.00 0.00 0.00 52 996.6
20260507042326 18 0 0.0 0.0 0.00 0.00 0.00 52 996.6
20260507042227 18 0 0.0 0.0 0.00 0.00 0.00 52 996.6
20260507042125 18 0 0.0 0.0 0.00 0.00 0.00 52 996.5
20260507042026 18 0 0.0 0.0 0.00 0.00 0.00 52 996.7
20260507041926 18 0 0.0 0.0 0.00 0.00 0.00 52 996.6
20260507041826 18 0 0.0 0.0 0.00 0.00 0.00 52 996.6
20260507041726 18 0 0.0 0.0 0.00 0.00 0.00 52 996.3
20260507041626 18 0 0.0 0.0 0.00 0.00 0.00 52 996.5
20260507041526 18 0 0.0 0.0 0.00 0.00 0.00 52 996.5
20260507041426 18 0 0.0 0.0 0.00 0.00 0.00 52 996.4
20260507041325 18 0 0.0 0.0 0.00 0.00 0.00 52 996.4
20260507041225 18 0 0.0 0.0 0.00 0.00 0.00 52 996.5
20260507041125 18 0 0.0 0.0 0.00 0.00 0.00 52 996.4
20260507041025 18 0 0.0 0.0 0.00 0.00 0.00 52 996.5
20260507040926 18 0 0.0 0.0 0.00 0.00 0.00 52 996.3
20260507040826 18 0 0.0 0.0 0.00 0.00 0.00 52 996.5
20260507040726 18 0 0.0 0.0 0.00 0.00 0.00 52 996.5
20260507040625 18 0 0.0 0.0 0.00 0.00 0.00 52 996.5
20260507040526 18 0 0.0 0.0 0.00 0.00 0.00 52 996.4
20260507040426 18 135 0.0 8.0 0.00 0.00 0.00 52 996.5
20260507040326 18 135 0.0 8.0 0.00 0.00 0.00 52 996.4
20260507040226 18 135 0.0 8.0 0.00 0.00 0.00 52 996.4
20260507040126 18 135 0.0 8.0 0.00 0.00 0.00 52 996.4
20260507040025 18 135 0.0 8.0 0.00 0.00 0.00 52 996.4
20260507035926 18 135 0.0 8.0 0.00 0.00 0.00 52 996.3
20260507035826 18 135 0.0 8.0 0.00 0.00 0.00 52 996.3
20260507035726 18 135 0.0 8.0 0.00 0.00 0.00 52 996.3
20260507035626 18 135 0.0 8.0 0.00 0.00 0.00 52 996.3
20260507035525 18 135 0.0 8.0 0.00 0.00 0.00 52 996.1
20260507035426 18 141 1.6 8.0 0.00 0.00 0.00 52 996.4
20260507035326 18 162 0.0 1.6 0.00 0.00 0.00 52 996.2
20260507035226 18 162 0.0 1.6 0.00 0.00 0.00 52 996.3
20260507035126 17 162 0.0 1.6 0.00 0.00 0.00 52 996.2
20260507035026 17 162 0.0 1.6 0.00 0.00 0.00 52 996.0
20260507034925 18 162 0.0 1.6 0.00 0.00 0.00 52 996.0
20260507034826 18 157 0.0 6.4 0.00 0.00 0.00 52 996.2
20260507034726 18 143 0.0 8.0 0.00 0.00 0.00 52 996.2
20260507034626 17 132 0.0 8.0 0.00 0.00 0.00 52 996.3
20260507034526 17 124 0.0 8.0 0.00 0.00 0.00 52 996.2
20260507034426 17 122 0.0 8.0 0.00 0.00 0.00 52 996.2
20260507034326 17 121 0.0 8.0 0.00 0.00 0.00 52 996.2
20260507034226 17 121 0.0 8.0 0.00 0.00 0.00 52 996.2
20260507034127 17 121 0.0 8.0 0.00 0.00 0.00 52 996.2
20260507034025 17 121 0.0 8.0 0.00 0.00 0.00 52 995.9
20260507033927 17 121 0.0 8.0 0.00 0.00 0.00 52 996.1
20260507033825 17 119 1.6 8.0 0.00 0.00 0.00 52 996.0
20260507033725 17 109 1.6 8.0 0.00 0.00 0.00 52 996.2
20260507033626 17 90 1.6 8.0 0.00 0.00 0.00 53 996.3
20260507033526 17 0 0.0 0.0 0.00 0.00 0.00 53 996.3
20260507033425 17 0 0.0 0.0 0.00 0.00 0.00 53 996.3
20260507033326 17 0 0.0 0.0 0.00 0.00 0.00 53 996.4
20260507033226 17 0 0.0 0.0 0.00 0.00 0.00 53 996.5
20260507033125 17 0 0.0 0.0 0.00 0.00 0.00 53 996.3
20260507033025 17 0 0.0 0.0 0.00 0.00 0.00 53 996.4
20260507032926 17 0 0.0 0.0 0.00 0.00 0.00 53 996.5
20260507032826 17 0 0.0 0.0 0.00 0.00 0.00 53 996.4
20260507032727 17 0 0.0 0.0 0.00 0.00 0.00 53 996.3
20260507032625 17 0 0.0 0.0 0.00 0.00 0.00 58 996.4
20260507032525 17 0 0.0 0.0 0.00 0.00 0.00 58 996.3
20260507032426 17 0 0.0 0.0 0.00 0.00 0.00 58 996.4
20260507032326 17 0 0.0 0.0 0.00 0.00 0.00 58 996.4
20260507032225 17 0 0.0 0.0 0.00 0.00 0.00 58 996.6
20260507032125 17 0 0.0 0.0 0.00 0.00 0.00 58 996.6
20260507032025 17 0 0.0 0.0 0.00 0.00 0.00 58 996.5
20260507031926 17 0 0.0 0.0 0.00 0.00 0.00 58 996.4
20260507031827 17 0 0.0 0.0 0.00 0.00 0.00 58 996.4
20260507031726 17 0 0.0 0.0 0.00 0.00 0.00 58 996.6
20260507031625 17 0 0.0 0.0 0.00 0.00 0.00 57 996.5
20260507031525 17 0 0.0 0.0 0.00 0.00 0.00 53 996.6
20260507031426 17 0 0.0 0.0 0.00 0.00 0.00 53 996.4
20260507031327 17 0 0.0 0.0 0.00 0.00 0.00 53 996.7
20260507031225 17 0 0.0 0.0 0.00 0.00 0.00 53 996.4
20260507031126 17 0 0.0 0.0 0.00 0.00 0.00 53 996.4
20260507031026 17 0 0.0 0.0 0.00 0.00 0.00 53 996.4
20260507030927 17 0 0.0 0.0 0.00 0.00 0.00 53 996.4
20260507030826 17 0 0.0 0.0 0.00 0.00 0.00 53 996.4
20260507030726 17 0 0.0 0.0 0.00 0.00 0.00 52 996.5
20260507030625 17 0 0.0 0.0 0.00 0.00 0.00 52 996.5
20260507030526 17 0 0.0 0.0 0.00 0.00 0.00 52 996.5
20260507030426 17 0 0.0 0.0 0.00 0.00 0.00 53 996.3
20260507030327 17 0 0.0 0.0 0.00 0.00 0.00 53 996.3
20260507030225 17 0 0.0 0.0 0.00 0.00 0.00 53 996.3
20260507030127 17 0 0.0 0.0 0.00 0.00 0.00 53 996.5
20260507030026 17 0 0.0 0.0 0.00 0.00 0.00 53 996.5
20260507025925 17 0 0.0 0.0 0.00 0.00 0.00 53 996.3
20260507025825 17 0 0.0 0.0 0.00 0.00 0.00 53 996.3
20260507025726 17 0 0.0 0.0 0.00 0.00 0.00 53 996.1
20260507025626 17 135 0.0 0.0 0.00 0.00 0.00 53 996.1
20260507025525 17 135 0.0 0.0 0.00 0.00 0.00 53 996.3
20260507025425 17 135 0.0 0.0 0.00 0.00 0.00 54 996.3
20260507025326 17 135 0.0 0.0 0.00 0.00 0.00 54 996.2
20260507025226 17 135 0.0 0.0 0.00 0.00 0.00 54 996.1
20260507025125 17 135 0.0 0.0 0.00 0.00 0.00 54 996.2
20260507025025 17 135 0.0 0.0 0.00 0.00 0.00 55 996.2
20260507024925 17 135 0.0 0.0 0.00 0.00 0.00 55 996.0
20260507024825 17 135 0.0 0.0 0.00 0.00 0.00 60 996.1
20260507024726 17 135 0.0 0.0 0.00 0.00 0.00 60 996.1
20260507024626 17 0 0.0 0.0 0.00 0.00 0.00 60 996.2
20260507024525 17 0 0.0 0.0 0.00 0.00 0.00 60 996.0
20260507024426 17 0 0.0 0.0 0.00 0.00 0.00 61 996.0
20260507024326 17 0 0.0 0.0 0.00 0.00 0.00 61 996.0
20260507024226 16 0 0.0 0.0 0.00 0.00 0.00 62 996.0
20260507024126 16 0 0.0 0.0 0.00 0.00 0.00 62 996.1
20260507024025 16 0 0.0 0.0 0.00 0.00 0.00 62 996.3
20260507023926 16 0 0.0 0.0 0.00 0.00 0.00 62 996.1